GREAT EAST LAKE DAM: From 05/12/2020 00:00 to 07/13/2020 00:00

Date LAKE ELEVATION [FT] PRECIPITATION INCREMENT [IN] PRECIPITATION TOTAL [IN] AIR TEMPERATURE [F] RELATIVE HUMIDITY [%]
07/11/2020 17:00 574.26 0.00 -- 77.5 49.0
07/11/2020 16:00 574.24 0.00 -- 82.9 48.0
07/11/2020 15:00 574.28 0.00 -- 81.6 53.0
07/11/2020 14:00 574.26 0.00 -- 80.4 57.0
07/11/2020 13:00 574.30 0.00 -- 78.6 64.0
07/11/2020 12:00 574.26 0.00 -- 73.8 66.0
07/11/2020 11:00 574.27 0.00 -- 71.3 68.0
07/11/2020 10:00 574.27 0.00 -- 71.0 68.0
07/11/2020 09:00 574.30 0.00 -- 70.6 68.0
07/11/2020 08:00 574.27 0.00 -- 70.2 70.0
07/11/2020 07:00 574.28 0.00 -- 70.4 71.0
07/11/2020 06:00 574.28 0.00 -- 70.3 72.0
07/11/2020 05:00 574.28 0.01 -- 70.4 72.0
07/11/2020 04:00 574.30 0.00 -- 70.8 73.0
07/11/2020 03:00 574.27 0.00 -- 69.8 74.0
07/11/2020 02:00 574.26 0.00 -- 69.5 73.0
07/11/2020 01:00 574.26 0.00 -- 69.6 71.0
07/11/2020 00:00 574.27 0.00 -- 70.0 70.0
07/10/2020 23:00 574.27 0.00 -- 70.4 67.0
07/10/2020 22:00 574.26 0.00 -- 70.9 65.0
07/10/2020 21:00 574.27 0.00 -- 71.9 63.0
07/10/2020 20:00 574.28 0.00 -- 73.9 60.0
07/10/2020 19:00 574.28 0.00 -- 75.6 57.0
07/10/2020 18:00 574.26 0.00 -- 77.0 57.0
07/10/2020 17:00 574.28 0.00 -- 79.9 55.0
07/10/2020 16:00 574.29 0.00 -- 81.6 52.0
07/10/2020 15:00 574.29 0.00 -- 82.6 48.0
07/10/2020 14:00 574.28 0.00 -- 82.2 45.0
07/10/2020 13:00 574.29 0.00 -- 81.0 46.0
07/10/2020 12:00 574.29 0.00 -- 80.9 50.0
07/10/2020 11:00 574.29 0.00 -- 75.9 52.0
07/10/2020 10:00 574.30 0.00 -- 72.1 52.0
07/10/2020 09:00 574.29 0.00 -- 70.5 52.0
07/10/2020 08:00 574.30 0.00 -- 69.5 51.0
07/10/2020 07:00 574.30 0.00 -- 69.2 49.0
07/10/2020 06:00 574.30 0.00 -- 69.0 49.0
07/10/2020 05:00 574.30 0.00 -- 69.2 48.0
07/10/2020 04:00 574.30 0.00 -- 69.6 47.0
07/10/2020 03:00 574.30 0.00 -- 69.9 47.0
07/10/2020 02:00 574.30 0.00 -- 69.9 44.0
07/10/2020 01:00 574.30 0.00 -- 70.9 42.0
07/10/2020 00:00 574.29 0.00 0.00 71.8 41.0
07/09/2020 23:00 574.31 0.00 -- 73.4 40.0
07/09/2020 22:00 574.30 0.00 -- 75.4 39.0
07/09/2020 21:00 574.31 0.00 -- 77.4 38.0
07/09/2020 20:00 574.31 0.00 -- 79.3 36.0
07/09/2020 19:00 574.31 0.00 -- 80.7 36.0
07/09/2020 18:00 574.30 0.00 -- 83.3 36.0
07/09/2020 17:00 574.32 0.00 -- 83.5 37.0
07/09/2020 16:00 574.31 0.00 -- 84.6 41.0
07/09/2020 15:00 574.32 0.00 -- 84.6 48.0
07/09/2020 14:00 574.32 0.00 -- 82.9 58.0
07/09/2020 13:00 574.32 0.00 -- 80.6 64.0
07/09/2020 12:00 574.32 0.00 -- 76.7 77.0
07/09/2020 11:00 574.33 0.00 -- 72.7 83.0
07/09/2020 10:00 574.32 0.00 -- 69.0 86.0
07/09/2020 09:00 574.32 0.00 -- 67.1 85.0
07/09/2020 08:00 574.32 0.00 -- 66.6 92.0
07/09/2020 07:00 574.33 0.00 -- 65.7 94.0
07/09/2020 06:00 574.33 0.00 -- 64.6 97.0
07/09/2020 05:00 574.33 0.00 -- 63.6 99.0
07/09/2020 04:00 574.32 0.00 -- 64.2 100.0
07/09/2020 03:00 574.32 0.00 -- 63.7 100.0
07/09/2020 02:00 574.33 0.00 -- 64.1 100.0
07/09/2020 01:00 574.33 0.00 -- 64.3 100.0
07/09/2020 00:00 574.31 0.00 0.00 64.2 100.0
07/08/2020 23:00 574.28 0.00 -- 65.0 100.0
07/08/2020 22:00 574.30 0.00 -- 65.9 100.0
07/08/2020 21:00 574.43 0.00 -- 65.5 100.0
07/08/2020 20:00 574.28 0.00 -- 74.4 100.0
07/08/2020 19:00 574.28 0.00 -- 75.6 100.0
07/08/2020 18:00 574.24 0.00 -- 76.0 100.0
07/08/2020 17:00 574.25 0.00 -- 79.8 100.0
07/08/2020 16:00 574.24 0.00 -- 81.8 100.0
07/08/2020 15:00 574.28 0.00 -- 80.6 100.0
07/08/2020 14:00 574.26 0.00 -- 77.9 100.0
07/08/2020 13:00 574.26 0.00 -- 77.0 100.0
07/08/2020 12:00 574.26 0.00 -- 75.8 100.0
07/08/2020 11:00 574.26 0.00 -- 72.2 100.0
07/08/2020 10:00 574.28 0.00 -- 70.1 100.0
07/08/2020 09:00 574.28 0.00 -- 67.9 100.0
07/08/2020 08:00 574.28 0.00 -- 66.2 100.0
07/08/2020 07:00 574.27 0.00 -- 65.2 100.0
07/08/2020 06:00 574.27 0.00 -- 65.0 100.0
07/08/2020 05:00 574.27 0.00 -- 64.6 100.0
07/08/2020 04:00 574.27 0.00 -- 64.8 100.0
07/08/2020 03:00 574.27 0.00 -- 64.8 100.0
07/08/2020 02:00 574.27 0.00 -- 64.1 100.0
07/08/2020 01:00 574.29 0.00 -- 63.3 100.0
07/08/2020 00:00 574.29 0.00 0.00 64.0 100.0
07/07/2020 23:00 574.29 0.00 -- 63.8 100.0
07/07/2020 22:00 574.30 0.00 -- 65.5 100.0
07/07/2020 21:00 574.27 0.00 -- 67.6 100.0
07/07/2020 20:00 574.28 0.00 -- 70.1 100.0
07/07/2020 19:00 574.28 0.00 -- 73.1 100.0
07/07/2020 18:00 574.31 0.00 -- 75.8 100.0
07/07/2020 17:00 574.31 0.00 -- 76.7 100.0
07/07/2020 16:00 574.31 0.00 -- 76.4 100.0
07/07/2020 15:00 574.29 0.00 -- 77.0 100.0
07/07/2020 14:00 574.30 0.00 -- 75.3 100.0
07/07/2020 13:00 574.30 0.00 -- 74.3 100.0
07/07/2020 12:00 574.30 0.00 -- 71.7 100.0
07/07/2020 11:00 574.30 0.00 -- 68.5 100.0
07/07/2020 10:00 574.30 0.00 -- 64.2 100.0
07/07/2020 09:00 574.31 0.00 -- 60.4 100.0
07/07/2020 08:00 574.30 0.00 -- 59.2 100.0
07/07/2020 07:00 574.31 0.00 -- 56.9 100.0
07/07/2020 06:00 574.32 0.00 -- 56.3 100.0
07/07/2020 05:00 574.31 0.00 -- 56.5 100.0
07/07/2020 04:00 574.31 0.00 -- 56.3 100.0
07/07/2020 03:00 574.33 0.00 -- 56.9 100.0
07/07/2020 02:00 574.32 0.00 -- 57.5 100.0
07/07/2020 01:00 574.34 0.00 -- 58.8 100.0
07/07/2020 00:00 574.33 0.00 0.00 60.5 100.0
07/06/2020 23:00 574.34 0.00 -- 62.8 100.0
07/06/2020 22:00 574.32 0.00 -- 64.9 100.0
07/06/2020 21:00 574.34 0.00 -- 67.6 100.0
07/06/2020 20:00 574.34 0.00 -- 71.2 100.0
07/06/2020 19:00 574.35 0.00 -- 73.7 100.0
07/06/2020 18:00 574.33 0.00 -- 77.0 100.0
07/06/2020 17:00 574.35 0.00 -- 76.3 100.0
07/06/2020 16:00 574.35 0.00 -- 78.9 100.0
07/06/2020 15:00 574.35 0.00 -- 78.8 100.0
07/06/2020 14:00 574.34 0.00 -- 77.3 100.0
07/06/2020 13:00 574.35 0.00 -- 74.8 100.0
07/06/2020 12:00 574.36 0.00 -- 73.1 97.0
07/06/2020 11:00 574.36 0.00 -- 70.0 96.0
07/06/2020 10:00 574.36 0.00 -- 67.9 92.0
07/06/2020 09:00 574.36 0.00 -- 65.6 89.0
07/06/2020 08:00 574.36 0.00 -- 64.6 83.0
07/06/2020 07:00 574.38 0.00 -- 63.9 89.0
07/06/2020 06:00 574.36 0.00 -- 63.9 92.0
07/06/2020 05:00 574.36 0.00 -- 64.0 98.0
07/06/2020 04:00 574.37 0.00 -- 64.2 100.0
07/06/2020 03:00 574.37 0.00 -- 64.4 100.0
07/06/2020 02:00 574.38 0.00 -- 65.2 100.0
07/06/2020 01:00 574.38 0.00 -- 65.1 100.0
07/06/2020 00:00 574.36 0.00 0.00 64.8 100.0
07/05/2020 23:00 574.37 0.00 -- 65.4 100.0
07/05/2020 22:00 574.37 0.00 -- 66.9 100.0
07/05/2020 21:00 574.39 0.00 -- 68.0 98.0
07/05/2020 20:00 574.38 0.00 -- 68.8 87.0
07/05/2020 19:00 574.38 0.00 -- 70.7 84.0
07/05/2020 18:00 574.38 0.00 -- 74.5 81.0
07/05/2020 17:00 574.40 0.00 -- 76.8 81.0
07/05/2020 16:00 574.38 0.00 -- 77.3 75.0
07/05/2020 15:00 574.40 0.00 -- 78.2 72.0
07/05/2020 14:00 574.39 0.00 -- 77.6 70.0
07/05/2020 13:00 574.39 0.00 -- 75.7 68.0
07/05/2020 12:00 574.39 0.00 -- 71.4 66.0
07/05/2020 11:00 574.40 0.00 -- 66.4 65.0
07/05/2020 10:00 574.40 0.00 -- 64.5 67.0
07/05/2020 09:00 574.39 0.00 -- 63.8 70.0
07/05/2020 08:00 574.39 0.00 -- 63.5 76.0
07/05/2020 07:00 574.41 0.00 -- 63.0 82.0
07/05/2020 06:00 574.40 0.00 -- 62.4 89.0
07/05/2020 05:00 574.40 0.00 -- 63.0 93.0
07/05/2020 04:00 574.41 0.00 -- 62.3 100.0
07/05/2020 03:00 574.41 0.00 -- 62.6 99.0
07/05/2020 02:00 574.41 0.00 -- 62.7 100.0
07/05/2020 01:00 574.41 0.00 -- 63.4 100.0
07/05/2020 00:00 574.40 0.00 0.00 63.9 100.0
07/04/2020 23:00 574.42 0.00 -- 64.8 95.0
07/04/2020 22:00 574.42 0.00 -- 67.5 90.0
07/04/2020 21:00 574.43 0.00 -- 71.1 82.0
07/04/2020 20:00 574.42 0.00 -- 74.1 75.0
07/04/2020 19:00 574.42 0.00 -- 76.5 74.0
07/04/2020 18:00 574.43 0.00 -- 79.1 68.0
07/04/2020 17:00 574.43 0.00 -- 80.4 83.0
07/04/2020 16:00 574.44 0.00 -- 79.3 100.0
07/04/2020 15:00 574.43 0.00 -- 80.1 77.0
07/04/2020 14:00 574.44 0.00 -- 78.0 52.0
07/04/2020 13:00 574.44 0.00 -- 76.7 48.0
07/04/2020 12:00 574.43 0.00 -- 73.5 50.0
07/04/2020 11:00 574.45 0.00 -- 69.5 49.0
07/04/2020 10:00 574.45 0.00 -- 66.2 47.0
07/04/2020 09:00 574.44 0.00 -- 64.1 45.0
07/04/2020 08:00 574.45 0.00 -- 60.5 46.0
07/04/2020 07:00 574.46 0.00 -- 58.7 48.0
07/04/2020 06:00 574.46 0.00 -- 59.1 50.0
07/04/2020 05:00 574.46 0.00 -- 60.8 54.0
07/04/2020 04:00 574.46 0.00 -- 61.2 58.0
07/04/2020 03:00 574.46 0.00 -- 61.0 62.0
07/04/2020 02:00 574.46 0.00 -- 60.7 68.0
07/04/2020 01:00 574.47 0.00 -- 61.1 72.0
07/04/2020 00:00 574.46 0.00 0.00 61.3 76.0
07/03/2020 23:00 574.47 0.00 -- 61.1 80.0
07/03/2020 22:00 574.48 0.00 -- 61.8 79.0
07/03/2020 21:00 574.47 0.00 -- 62.9 82.0
07/03/2020 20:00 574.48 0.00 -- 64.6 79.0
07/03/2020 19:00 574.47 0.00 -- 65.5 74.0
07/03/2020 18:00 574.48 0.00 -- 66.8 68.0
07/03/2020 17:00 574.48 0.00 -- 67.7 68.0
07/03/2020 16:00 574.48 0.00 -- 68.0 66.0
07/03/2020 15:00 574.49 0.00 -- 67.1 67.0
07/03/2020 14:00 574.47 0.00 -- 67.3 72.0
07/03/2020 13:00 574.48 0.00 -- 66.6 72.0
07/03/2020 12:00 574.50 0.00 -- 67.3 68.0
07/03/2020 11:00 574.49 0.00 -- 66.6 66.0
07/03/2020 10:00 574.49 0.00 -- 68.1 62.0
07/03/2020 09:00 574.49 0.00 -- 69.0 62.0
07/03/2020 08:00 574.50 0.00 -- 69.8 62.0
07/03/2020 07:00 574.50 0.00 -- 70.2 61.0
07/03/2020 06:00 574.50 0.00 -- 70.9 59.0
07/03/2020 05:00 574.51 0.00 -- 71.9 61.0
07/03/2020 04:00 574.51 0.00 -- 70.6 61.0
07/03/2020 03:00 574.51 0.00 -- 70.1 63.0
07/03/2020 02:00 574.50 0.00 -- 72.1 65.0
07/03/2020 01:00 574.51 0.00 -- 73.0 66.0
07/03/2020 00:00 574.52 0.00 0.00 73.6 67.0
07/02/2020 23:00 574.55 0.00 -- 73.6 66.0
07/02/2020 22:00 574.52 0.00 -- 74.8 63.0
07/02/2020 21:00 574.52 0.00 -- 76.8 54.0
07/02/2020 20:00 574.53 0.00 -- 82.7 50.0
07/02/2020 19:00 574.52 0.00 -- 81.9 51.0
07/02/2020 18:00 574.53 0.00 -- 86.0 83.0
07/02/2020 17:00 574.53 0.00 -- 86.4 74.0
07/02/2020 16:00 574.52 0.00 -- 85.4 62.0
07/02/2020 15:00 574.53 0.00 -- 84.5 71.0
07/02/2020 14:00 574.53 0.00 -- 82.5 62.0
07/02/2020 13:00 574.55 0.00 -- 80.9 43.0
07/02/2020 12:00 574.54 0.00 -- 78.0 41.0
07/02/2020 11:00 574.55 0.00 -- 74.6 44.0
07/02/2020 10:00 574.56 0.00 -- 69.9 43.0
07/02/2020 09:00 574.55 0.00 -- 66.9 42.0
07/02/2020 08:00 574.55 0.00 -- 66.2 42.0
07/02/2020 07:00 574.55 0.00 -- 66.1 41.0
07/02/2020 06:00 574.55 0.00 -- 66.2 41.0
07/02/2020 05:00 574.54 0.00 -- 64.5 40.0
07/02/2020 04:00 574.54 0.00 -- 64.7 37.0
07/02/2020 03:00 574.54 0.00 -- 62.4 36.0
07/02/2020 02:00 574.55 0.00 -- 64.1 35.0
07/02/2020 01:00 574.56 0.00 -- 64.7 34.0
07/02/2020 00:00 574.55 0.00 0.00 63.8 33.0
07/01/2020 23:00 574.55 0.00 -- 64.7 33.0
07/01/2020 22:00 574.55 0.00 -- 67.2 33.0
07/01/2020 21:00 574.55 0.00 -- 68.4 32.0
07/01/2020 20:00 574.54 0.00 -- 69.1 31.0
07/01/2020 19:00 574.55 0.00 -- 71.2 32.0
07/01/2020 18:00 574.55 0.00 -- 75.6 32.0
07/01/2020 17:00 574.55 0.00 -- 75.2 31.0
07/01/2020 16:00 574.55 0.00 -- 75.4 32.0
07/01/2020 15:00 574.55 0.00 -- 73.7 28.0
07/01/2020 14:00 574.55 0.00 -- 72.5 30.0
07/01/2020 13:00 574.55 0.00 -- 70.7 30.0
07/01/2020 12:00 574.56 0.00 -- 68.2 36.0
07/01/2020 11:00 574.56 0.00 -- 67.0 37.0
07/01/2020 10:00 574.55 0.00 -- 66.5 38.0
07/01/2020 09:00 574.55 0.00 -- 65.0 38.0
07/01/2020 08:00 574.55 0.00 -- 63.6 39.0
07/01/2020 07:00 574.54 0.00 -- 63.0 39.0
07/01/2020 06:00 574.55 0.00 -- 62.6 39.0
07/01/2020 05:00 574.54 0.00 -- 62.8 39.0
07/01/2020 04:00 574.55 0.00 -- 63.2 38.0
07/01/2020 03:00 574.54 0.00 -- 64.3 37.0
07/01/2020 02:00 574.54 0.01 -- 63.8 37.0
07/01/2020 01:00 574.54 0.00 -- 64.4 37.0
07/01/2020 00:00 574.52 0.00 0.01 66.6 38.0
06/30/2020 23:00 574.52 0.00 -- 65.5 40.0
06/30/2020 22:00 574.52 0.00 -- 65.1 41.0
06/30/2020 21:00 574.52 0.00 -- 65.6 40.0
06/30/2020 20:00 574.54 0.00 -- 66.5 40.0
06/30/2020 19:00 574.52 0.00 -- 66.9 41.0
06/30/2020 18:00 574.50 0.00 -- 67.7 40.0
06/30/2020 17:00 574.51 0.00 -- 67.6 38.0
06/30/2020 16:00 574.50 0.00 -- 68.1 38.0
06/30/2020 15:00 574.50 0.00 -- 67.4 37.0
06/30/2020 14:00 574.50 0.00 -- 68.2 37.0
06/30/2020 13:00 574.49 0.01 -- 66.1 39.0
06/30/2020 12:00 574.47 0.00 -- 69.2 44.0
06/30/2020 11:00 574.47 0.00 -- 67.4 53.0
06/30/2020 10:00 574.47 0.00 -- 65.6 59.0
06/30/2020 09:00 574.47 0.00 -- 64.7 59.0
06/30/2020 08:00 574.47 0.00 -- 64.2 59.0
06/30/2020 07:00 574.46 0.00 -- 63.7 59.0
06/30/2020 06:00 574.46 0.00 -- 62.8 61.0
06/30/2020 05:00 574.46 0.00 -- 62.9 63.0
06/30/2020 04:00 574.46 0.00 -- 62.4 64.0
06/30/2020 03:00 574.45 0.00 -- 62.5 66.0
06/30/2020 02:00 574.44 0.00 -- 63.7 69.0
06/30/2020 01:00 574.45 0.00 -- 63.0 71.0
06/30/2020 00:00 574.46 0.00 0.01 62.0 75.0
06/29/2020 23:00 574.45 0.00 -- 62.0 73.0
06/29/2020 22:00 574.45 0.00 -- 62.1 72.0
06/29/2020 21:00 574.44 0.01 -- 63.1 74.0
06/29/2020 20:00 574.44 0.01 -- 64.2 79.0
06/29/2020 19:00 574.43 0.00 -- 64.0 81.0
06/29/2020 18:00 574.42 0.00 -- 64.3 81.0
06/29/2020 17:00 574.42 0.00 -- 65.0 86.0
06/29/2020 16:00 574.42 0.00 -- 64.4 89.0
06/29/2020 15:00 574.42 0.00 -- 65.9 93.0
06/29/2020 14:00 574.42 0.00 -- 65.3 95.0
06/29/2020 13:00 574.42 0.00 -- 64.7 98.0
06/29/2020 12:00 574.41 0.01 -- 64.0 100.0
06/29/2020 11:00 574.39 0.00 -- 64.4 100.0
06/29/2020 10:00 574.39 0.00 -- 63.8 100.0
06/29/2020 09:00 574.39 0.00 -- 64.3 100.0
06/29/2020 08:00 574.38 0.00 -- 64.0 100.0
06/29/2020 07:00 574.38 0.00 -- 64.2 100.0
06/29/2020 06:00 574.37 0.00 -- 64.8 100.0
06/29/2020 05:00 574.38 0.00 -- 64.8 100.0
06/29/2020 04:00 574.38 0.00 -- 65.4 100.0
06/29/2020 03:00 574.34 0.00 -- 65.6 100.0
06/29/2020 02:00 574.32 0.00 -- 65.9 100.0
06/29/2020 01:00 574.31 0.01 -- 65.6 100.0
06/29/2020 00:00 574.28 0.00 0.04 65.8 100.0
06/28/2020 23:00 574.28 0.01 -- 64.9 100.0
06/28/2020 22:00 574.28 0.00 -- 65.2 100.0
06/28/2020 21:00 574.29 0.00 -- 63.7 100.0
06/28/2020 20:00 574.29 0.00 -- 64.8 100.0
06/28/2020 19:00 574.31 0.00 -- 64.4 100.0
06/28/2020 18:00 574.02 0.00 -- 75.7 100.0
06/28/2020 17:00 574.01 0.00 -- 80.3 100.0
06/28/2020 16:00 574.03 0.00 -- 80.1 100.0
06/28/2020 15:00 574.03 0.00 -- 79.9 100.0
06/28/2020 14:00 574.03 0.00 -- 78.6 100.0
06/28/2020 13:00 574.04 0.00 -- 78.5 100.0
06/28/2020 12:00 574.03 0.00 -- 75.5 100.0
06/28/2020 11:00 574.03 0.00 -- 74.7 100.0
06/28/2020 10:00 574.04 0.00 -- 71.7 100.0
06/28/2020 09:00 574.03 0.00 -- 68.4 100.0
06/28/2020 08:00 574.02 0.00 -- 63.4 100.0
06/28/2020 07:00 574.03 0.00 -- 60.3 100.0
06/28/2020 06:00 574.03 0.00 -- 60.2 100.0
06/28/2020 05:00 574.03 0.00 -- 60.3 100.0
06/28/2020 04:00 574.03 0.00 -- 61.4 100.0
06/28/2020 03:00 574.03 0.00 -- 62.8 100.0
06/28/2020 02:00 574.03 0.00 -- 64.8 100.0
06/28/2020 01:00 574.03 0.00 -- 67.0 100.0
06/28/2020 00:00 574.03 0.00 0.01 68.4 100.0
06/27/2020 23:00 574.03 0.00 -- 68.6 100.0
06/27/2020 22:00 574.02 0.00 -- 69.3 100.0
06/27/2020 21:00 574.03 0.00 -- 71.5 100.0
06/27/2020 20:00 574.01 0.00 -- 74.5 100.0
06/27/2020 19:00 574.02 0.00 -- 75.7 100.0
06/27/2020 18:00 574.02 0.00 -- 78.7 100.0
06/27/2020 17:00 574.02 0.00 -- 77.1 100.0
06/27/2020 16:00 574.03 0.00 -- 76.1 100.0
06/27/2020 15:00 574.04 0.00 -- 74.2 100.0
06/27/2020 14:00 574.05 0.00 -- 75.6 100.0
06/27/2020 13:00 574.03 0.00 -- 77.0 100.0
06/27/2020 12:00 574.04 0.00 -- 76.9 100.0
06/27/2020 11:00 574.04 0.00 -- 72.3 100.0
06/27/2020 10:00 574.04 0.00 -- 69.9 100.0
06/27/2020 09:00 574.04 0.00 -- 65.7 100.0
06/27/2020 08:00 574.04 0.00 -- 61.0 100.0
06/27/2020 07:00 574.03 0.00 -- 59.2 100.0
06/27/2020 06:00 574.03 0.00 -- 57.8 100.0
06/27/2020 05:00 574.04 0.00 -- 58.6 100.0
06/27/2020 04:00 574.03 0.00 -- 60.1 100.0
06/27/2020 03:00 574.03 0.00 -- 61.4 100.0
06/27/2020 02:00 574.04 0.00 -- 63.5 100.0
06/27/2020 01:00 574.04 0.00 -- 65.4 100.0
06/27/2020 00:00 574.04 0.00 0.00 66.5 100.0
06/26/2020 23:00 574.04 0.00 -- 68.2 100.0
06/26/2020 22:00 574.05 0.00 -- 72.4 100.0
06/26/2020 21:00 574.03 0.00 -- 71.4 100.0
06/26/2020 20:00 574.05 0.00 -- 75.1 100.0
06/26/2020 19:00 574.05 0.00 -- 78.1 100.0
06/26/2020 18:00 574.04 0.00 -- 75.3 100.0
06/26/2020 17:00 574.04 0.00 -- 76.9 100.0
06/26/2020 16:00 574.04 0.00 -- 75.5 100.0
06/26/2020 15:00 574.05 0.00 -- 79.3 100.0
06/26/2020 14:00 574.06 0.00 -- 77.9 100.0
06/26/2020 13:00 574.04 0.00 -- 77.1 100.0
06/26/2020 12:00 574.05 0.00 -- 74.8 100.0
06/26/2020 11:00 574.05 0.00 -- 73.2 100.0
06/26/2020 10:00 574.06 0.00 -- 71.6 100.0
06/26/2020 09:00 574.05 0.00 -- 69.4 100.0
06/26/2020 08:00 574.05 0.00 -- 63.4 100.0
06/26/2020 07:00 574.05 0.00 -- 61.7 100.0
06/26/2020 06:00 574.05 0.00 -- 61.3 100.0
06/26/2020 05:00 574.06 0.00 -- 61.6 100.0
06/26/2020 04:00 574.02 0.00 -- 61.4 100.0
06/26/2020 03:00 574.06 0.00 -- 61.9 100.0
06/26/2020 02:00 574.05 0.00 -- 61.8 100.0
06/26/2020 01:00 574.05 0.00 -- 61.3 100.0
06/26/2020 00:00 574.05 0.00 0.00 62.3 100.0
06/25/2020 23:00 574.05 0.00 -- 65.1 100.0
06/25/2020 22:00 574.05 0.00 -- 67.2 100.0
06/25/2020 21:00 574.05 0.00 -- 72.4 100.0
06/25/2020 20:00 574.05 0.00 -- 77.6 100.0
06/25/2020 19:00 574.05 0.00 -- 79.8 100.0
06/25/2020 18:00 574.10 0.00 -- 80.3 100.0
06/25/2020 17:00 574.07 0.00 -- 80.7 100.0
06/25/2020 16:00 574.04 0.00 -- 79.3 100.0
06/25/2020 15:00 574.08 0.00 -- 79.6 100.0
06/25/2020 14:00 574.09 0.00 -- 78.6 100.0
06/25/2020 13:00 574.06 0.00 -- 77.2 100.0
06/25/2020 12:00 574.06 0.00 -- 74.2 100.0
06/25/2020 11:00 574.06 0.00 -- 72.0 100.0
06/25/2020 10:00 574.07 0.00 -- 69.0 79.0
06/25/2020 09:00 574.06 0.00 -- 65.6 77.0
06/25/2020 08:00 574.08 0.00 -- 60.4 82.0
06/25/2020 07:00 574.07 0.00 -- 59.3 87.0
06/25/2020 06:00 574.07 0.00 -- 59.2 87.0
06/25/2020 05:00 574.07 0.00 -- 59.4 93.0
06/25/2020 04:00 574.07 0.00 -- 61.9 96.0
06/25/2020 03:00 574.07 0.00 -- 62.7 98.0
06/25/2020 02:00 574.06 0.00 -- 63.6 100.0
06/25/2020 01:00 574.07 0.00 -- 63.6 100.0
06/25/2020 00:00 574.07 0.00 0.00 64.8 100.0
06/24/2020 23:00 574.07 0.00 -- 66.4 100.0
06/24/2020 22:00 574.07 0.00 -- 69.0 100.0
06/24/2020 21:00 574.08 0.00 -- 76.5 100.0
06/24/2020 20:00 574.07 0.00 -- 79.3 80.0
06/24/2020 19:00 574.06 0.00 -- 77.6 54.0
06/24/2020 18:00 574.07 0.00 -- 76.0 54.0
06/24/2020 17:00 574.07 0.00 -- 75.1 54.0
06/24/2020 16:00 574.05 0.00 -- 75.4 57.0
06/24/2020 15:00 574.07 0.00 -- 78.5 56.0
06/24/2020 14:00 574.07 0.00 -- 76.8 51.0
06/24/2020 13:00 574.08 0.00 -- 74.1 50.0
06/24/2020 12:00 574.07 0.00 -- 72.7 52.0
06/24/2020 11:00 574.06 0.00 -- 71.0 56.0
06/24/2020 10:00 574.07 0.00 -- 69.6 60.0
06/24/2020 09:00 574.08 0.00 -- 68.3 63.0
06/24/2020 08:00 574.05 0.00 -- 66.9 71.0
06/24/2020 07:00 574.08 0.00 -- 67.7 78.0
06/24/2020 06:00 574.06 0.00 -- 67.1 87.0
06/24/2020 05:00 574.06 0.00 -- 68.0 96.0
06/24/2020 04:00 574.06 0.00 -- 68.7 100.0
06/24/2020 03:00 574.08 0.00 -- 69.7 100.0
06/24/2020 02:00 574.09 0.00 -- 70.4 100.0
06/24/2020 01:00 574.08 0.00 -- 70.4 100.0
06/24/2020 00:00 574.07 0.00 0.00 72.0 100.0
06/23/2020 23:00 574.07 0.00 -- 71.6 100.0
06/23/2020 22:00 574.08 0.00 -- 73.5 100.0
06/23/2020 21:00 574.05 0.00 -- 76.9 100.0
06/23/2020 20:00 574.07 0.00 -- 79.2 100.0
06/23/2020 19:00 574.06 0.00 -- 81.3 100.0
06/23/2020 18:00 574.08 0.00 -- 85.0 100.0
06/23/2020 17:00 574.07 0.00 -- 86.5 100.0
06/23/2020 16:00 574.09 0.00 -- 87.2 100.0
06/23/2020 15:00 574.07 0.00 -- 86.0 72.0
06/23/2020 14:00 574.08 0.00 -- 84.1 49.0
06/23/2020 13:00 574.07 0.00 -- 80.9 47.0
06/23/2020 12:00 574.09 0.00 -- 80.5 42.0
06/23/2020 11:00 574.08 0.00 -- 76.4 51.0
06/23/2020 10:00 574.08 0.00 -- 70.4 48.0
06/23/2020 09:00 574.08 0.00 -- 67.2 49.0
06/23/2020 08:00 574.09 0.00 -- 64.6 51.0
06/23/2020 07:00 574.09 0.00 -- 62.7 56.0
06/23/2020 06:00 574.08 0.00 -- 62.2 62.0
06/23/2020 05:00 574.08 0.00 -- 62.6 69.0
06/23/2020 04:00 574.10 0.00 -- 63.0 80.0
06/23/2020 03:00 574.08 0.00 -- 63.5 88.0
06/23/2020 02:00 574.08 0.00 -- 64.4 95.0
06/23/2020 01:00 574.08 0.00 -- 65.3 100.0
06/23/2020 00:00 574.08 0.00 0.00 66.3 100.0
06/22/2020 23:00 574.08 0.00 -- 67.7 100.0
06/22/2020 22:00 574.08 0.00 -- 69.6 100.0
06/22/2020 21:00 574.09 0.00 -- 72.4 100.0
06/22/2020 20:00 574.08 0.00 -- 74.6 100.0
06/22/2020 19:00 574.08 0.00 -- 78.6 100.0
06/22/2020 18:00 574.08 0.00 -- 81.8 100.0
06/22/2020 17:00 574.09 0.00 -- 81.4 100.0
06/22/2020 16:00 574.08 0.00 -- 80.4 100.0
06/22/2020 15:00 574.08 0.00 -- 79.5 100.0
06/22/2020 14:00 574.09 0.00 -- 76.0 100.0
06/22/2020 13:00 574.10 0.00 -- 72.2 89.0
06/22/2020 12:00 574.10 0.00 -- 69.7 91.0
06/22/2020 11:00 574.10 0.00 -- 67.0 96.0
06/22/2020 10:00 574.10 0.00 -- 65.6 100.0
06/22/2020 09:00 574.07 0.00 -- 64.8 100.0
06/22/2020 08:00 574.09 0.00 -- 64.1 100.0
06/22/2020 07:00 574.08 0.00 -- 63.8 100.0
06/22/2020 06:00 574.09 0.00 -- 64.2 100.0
06/22/2020 05:00 574.09 0.00 -- 64.3 100.0
06/22/2020 04:00 574.09 0.00 -- 64.3 100.0
06/22/2020 03:00 574.09 0.00 -- 64.8 100.0
06/22/2020 02:00 574.09 0.00 -- 65.1 100.0
06/22/2020 01:00 574.09 0.00 -- 65.4 100.0
06/22/2020 00:00 574.10 0.00 0.00 66.7 100.0
06/21/2020 23:00 574.11 0.00 -- 67.5 100.0
06/21/2020 22:00 574.11 0.00 -- 67.6 100.0
06/21/2020 21:00 574.11 0.00 -- 67.8 100.0
06/21/2020 20:00 574.11 0.00 -- 67.9 100.0
06/21/2020 19:00 574.11 0.00 -- 68.1 100.0
06/21/2020 18:00 574.11 0.00 -- 68.2 100.0
06/21/2020 17:00 574.10 0.00 -- 68.4 100.0
06/21/2020 16:00 574.10 0.00 -- 68.5 100.0
06/21/2020 15:00 574.10 0.00 -- 68.7 100.0
06/21/2020 14:00 574.10 0.00 -- 68.8 100.0
06/21/2020 13:00 574.10 0.00 -- 69.0 100.0
06/21/2020 12:00 574.10 0.00 -- 69.1 100.0
06/21/2020 11:00 574.10 0.00 -- 69.2 100.0
06/21/2020 10:00 574.10 0.00 -- 69.4 100.0
06/21/2020 09:00 574.10 0.00 -- 69.5 100.0
06/21/2020 08:00 574.10 0.00 -- 69.7 100.0
06/21/2020 07:00 574.09 0.00 -- 69.8 100.0
06/21/2020 06:00 574.09 0.00 -- 70.0 100.0
06/21/2020 05:00 574.09 0.00 -- 70.1 100.0
06/21/2020 04:00 574.09 0.00 -- 70.3 100.0
06/21/2020 03:00 574.09 0.00 -- 70.4 100.0
06/21/2020 02:00 574.10 0.00 -- 70.9 100.0
06/21/2020 01:00 574.09 0.00 -- 70.2 100.0
06/21/2020 00:00 574.10 0.00 0.00 71.3 100.0
06/20/2020 23:00 574.09 0.00 -- 71.8 100.0
06/20/2020 22:00 574.09 0.00 -- 74.1 100.0
06/20/2020 21:00 574.09 0.00 -- 78.3 100.0
06/20/2020 20:00 574.09 0.00 -- 80.6 100.0
06/20/2020 19:00 574.10 0.00 -- 83.6 100.0
06/20/2020 18:00 574.09 0.00 -- 84.6 100.0
06/20/2020 17:00 574.09 0.00 -- 84.9 100.0
06/20/2020 16:00 574.10 0.00 -- 79.5 100.0
06/20/2020 15:00 574.08 0.00 -- 79.2 100.0
06/20/2020 14:00 574.09 0.00 -- 83.5 100.0
06/20/2020 13:00 574.10 0.00 -- 84.3 100.0
06/20/2020 12:00 574.10 0.00 -- 82.6 100.0
06/20/2020 11:00 574.09 0.00 -- 80.0 100.0
06/20/2020 10:00 574.10 0.00 -- 76.7 100.0
06/20/2020 09:00 574.10 0.00 -- 74.7 100.0
06/20/2020 08:00 574.10 0.00 -- 73.5 100.0
06/20/2020 07:00 574.09 0.00 -- 72.7 100.0
06/20/2020 06:00 574.10 0.00 -- 71.5 100.0
06/20/2020 05:00 574.11 0.00 -- 73.6 100.0
06/20/2020 04:00 574.11 0.00 -- 74.8 100.0
06/20/2020 03:00 574.09 0.00 -- 69.2 100.0
06/20/2020 02:00 574.10 0.00 -- 70.8 100.0
06/20/2020 01:00 574.11 0.00 -- 74.9 100.0
06/20/2020 00:00 574.10 0.00 0.00 75.3 100.0
06/19/2020 23:00 574.10 0.00 -- 74.5 100.0
06/19/2020 22:00 574.09 0.00 -- 76.1 100.0
06/19/2020 21:00 574.09 0.00 -- 80.1 100.0
06/19/2020 20:00 574.09 0.00 -- 83.1 100.0
06/19/2020 19:00 574.10 0.00 -- 85.4 100.0
06/19/2020 18:00 574.09 0.00 -- 86.6 100.0
06/19/2020 17:00 574.10 0.00 -- 89.6 100.0
06/19/2020 16:00 574.11 0.00 -- 89.6 100.0
06/19/2020 15:00 574.11 0.00 -- 86.5 100.0
06/19/2020 14:00 574.10 0.00 -- 84.3 100.0
06/19/2020 13:00 574.11 0.00 -- 84.4 100.0
06/19/2020 12:00 574.10 0.00 -- 81.2 100.0
06/19/2020 11:00 574.09 0.00 -- 78.7 100.0
06/19/2020 10:00 574.10 0.00 -- 75.6 100.0
06/19/2020 09:00 574.10 0.00 -- 73.3 100.0
06/19/2020 08:00 574.10 0.00 -- 66.1 100.0
06/19/2020 07:00 574.10 0.00 -- 64.0 100.0
06/19/2020 06:00 574.10 0.00 -- 63.9 100.0
06/19/2020 05:00 574.10 0.00 -- 64.0 100.0
06/19/2020 04:00 574.09 0.00 -- 64.3 100.0
06/19/2020 03:00 574.10 0.00 -- 64.7 100.0
06/19/2020 02:00 574.09 0.00 -- 65.7 100.0
06/19/2020 01:00 574.10 0.00 -- 67.3 100.0
06/19/2020 00:00 574.10 0.00 0.00 68.4 100.0
06/18/2020 23:00 574.10 0.00 -- 70.2 100.0
06/18/2020 22:00 574.10 0.00 -- 73.0 100.0
06/18/2020 21:00 574.10 0.00 -- 77.2 100.0
06/18/2020 20:00 574.09 0.00 -- 81.9 100.0
06/18/2020 19:00 574.09 0.00 -- 85.5 100.0
06/18/2020 18:00 574.10 0.00 -- 88.6 100.0
06/18/2020 17:00 574.10 0.00 -- 89.0 100.0
06/18/2020 16:00 574.10 0.00 -- 88.5 100.0
06/18/2020 15:00 574.11 0.00 -- 87.5 100.0
06/18/2020 14:00 574.10 0.00 -- 85.5 100.0
06/18/2020 13:00 574.10 0.00 -- 84.5 100.0
06/18/2020 12:00 574.10 0.00 -- 82.3 100.0
06/18/2020 11:00 574.11 0.00 -- 76.4 100.0
06/18/2020 10:00 574.11 0.00 -- 71.5 100.0
06/18/2020 09:00 574.11 0.00 -- 68.5 100.0
06/18/2020 08:00 574.10 0.00 -- 64.5 100.0
06/18/2020 07:00 574.11 0.00 -- 58.8 100.0
06/18/2020 06:00 574.11 0.00 -- 56.9 100.0
06/18/2020 05:00 574.11 0.00 -- 56.7 100.0
06/18/2020 04:00 574.10 0.00 -- 57.5 100.0
06/18/2020 03:00 574.11 0.00 -- 59.2 100.0
06/18/2020 02:00 574.12 0.00 -- 60.3 100.0
06/18/2020 01:00 574.11 0.00 -- 62.2 100.0
06/18/2020 00:00 574.10 0.00 0.00 64.5 100.0
06/17/2020 23:00 574.12 0.00 -- 67.3 100.0
06/17/2020 22:00 574.11 0.00 -- 68.5 100.0
06/17/2020 21:00 574.11 0.00 -- 72.5 100.0
06/17/2020 20:00 574.09 0.00 -- 75.9 100.0
06/17/2020 19:00 574.11 0.00 -- 79.4 100.0
06/17/2020 18:00 574.10 0.00 -- 82.2 100.0
06/17/2020 17:00 574.11 0.00 -- 83.0 100.0
06/17/2020 16:00 574.11 0.00 -- 83.1 100.0
06/17/2020 15:00 574.11 0.00 -- 81.8 100.0
06/17/2020 14:00 574.12 0.00 -- 80.6 100.0
06/17/2020 13:00 574.11 0.00 -- 78.3 100.0
06/17/2020 12:00 574.12 0.00 -- 74.5 100.0
06/17/2020 11:00 574.11 0.00 -- 72.7 100.0
06/17/2020 10:00 574.12 0.00 -- 66.8 100.0
06/17/2020 09:00 574.12 0.00 -- 62.0 100.0
06/17/2020 08:00 574.12 0.00 -- 55.1 100.0
06/17/2020 07:00 574.11 0.00 -- 51.0 100.0
06/17/2020 06:00 574.11 0.00 -- 50.5 100.0
06/17/2020 05:00 574.11 0.00 -- 50.5 100.0
06/17/2020 04:00 574.11 0.00 -- 51.3 100.0
06/17/2020 03:00 574.12 0.00 -- 52.4 100.0
06/17/2020 02:00 574.11 0.00 -- 54.2 100.0
06/17/2020 01:00 574.11 0.00 -- 56.1 100.0
06/17/2020 00:00 574.10 0.00 0.00 59.0 100.0
06/16/2020 23:00 574.12 0.00 -- 60.6 100.0
06/16/2020 22:00 574.11 0.00 -- 63.8 100.0
06/16/2020 21:00 574.12 0.00 -- 67.1 100.0
06/16/2020 20:00 574.11 0.00 -- 70.6 100.0
06/16/2020 19:00 574.11 0.00 -- 73.2 100.0
06/16/2020 18:00 574.11 0.00 -- 75.8 100.0
06/16/2020 17:00 574.13 0.00 -- 78.5 100.0
06/16/2020 16:00 574.11 0.00 -- 78.9 100.0
06/16/2020 15:00 574.12 0.00 -- 77.5 100.0
06/16/2020 14:00 574.11 0.00 -- 75.6 100.0
06/16/2020 13:00 574.13 0.00 -- 72.6 100.0
06/16/2020 12:00 574.12 0.00 -- 70.3 100.0
06/16/2020 11:00 574.12 0.00 -- 67.6 100.0
06/16/2020 10:00 574.12 0.00 -- 64.3 100.0
06/16/2020 09:00 574.12 0.00 -- 59.5 100.0
06/16/2020 08:00 574.12 0.00 -- 56.0 100.0
06/16/2020 07:00 574.12 0.00 -- 53.2 100.0
06/16/2020 06:00 574.11 0.00 -- 53.8 100.0
06/16/2020 05:00 574.13 0.00 -- 55.1 100.0
06/16/2020 04:00 574.13 0.00 -- 53.3 100.0
06/16/2020 03:00 574.12 0.00 -- 52.3 100.0
06/16/2020 02:00 574.12 0.00 -- 52.5 100.0
06/16/2020 01:00 574.12 0.00 -- 53.5 100.0
06/16/2020 00:00 574.12 0.00 0.00 55.5 100.0
06/15/2020 23:00 574.12 0.00 -- 58.7 100.0
06/15/2020 22:00 574.12 0.00 -- 59.9 100.0
06/15/2020 21:00 574.11 0.00 -- 61.8 100.0
06/15/2020 20:00 574.12 0.00 -- 66.2 100.0
06/15/2020 19:00 574.12 0.00 -- 68.6 100.0
06/15/2020 18:00 574.12 0.00 -- 69.5 100.0
06/15/2020 17:00 574.12 0.00 -- 68.7 100.0
06/15/2020 16:00 574.13 0.00 -- 68.3 100.0
06/15/2020 15:00 574.12 0.00 -- 67.8 100.0
06/15/2020 14:00 574.12 0.00 -- 69.1 100.0
06/15/2020 13:00 574.13 0.00 -- 66.9 100.0
06/15/2020 12:00 574.12 0.00 -- 65.1 100.0
06/15/2020 11:00 574.12 0.00 -- 62.6 100.0
06/15/2020 10:00 574.12 0.00 -- 58.6 100.0
06/15/2020 09:00 574.12 0.00 -- 56.0 100.0
06/15/2020 08:00 574.11 0.00 -- 54.4 100.0
06/15/2020 07:00 574.10 0.00 -- 52.3 100.0
06/15/2020 06:00 574.12 0.00 -- 51.7 100.0
06/15/2020 05:00 574.11 0.00 -- 51.7 100.0
06/15/2020 04:00 574.15 0.00 -- 52.4 100.0
06/15/2020 03:00 574.12 0.00 -- 53.6 100.0
06/15/2020 02:00 574.13 0.00 -- 53.8 100.0
06/15/2020 01:00 574.12 0.00 -- 54.7 100.0
06/15/2020 00:00 574.12 0.00 0.00 55.9 100.0
06/14/2020 23:00 574.12 0.00 -- 57.0 100.0
06/14/2020 22:00 574.12 0.00 -- 59.0 100.0
06/14/2020 21:00 574.13 0.00 -- 61.4 100.0
06/14/2020 20:00 574.13 0.00 -- 63.5 100.0
06/14/2020 19:00 574.13 0.00 -- 64.3 100.0
06/14/2020 18:00 574.12 0.00 -- 64.9 100.0
06/14/2020 17:00 574.13 0.00 -- 67.3 100.0
06/14/2020 16:00 574.12 0.00 -- 68.1 100.0
06/14/2020 15:00 574.13 0.00 -- 66.9 100.0
06/14/2020 14:00 574.13 0.00 -- 65.5 100.0
06/14/2020 13:00 574.12 0.00 -- 64.7 100.0
06/14/2020 12:00 574.14 0.00 -- 62.8 100.0
06/14/2020 11:00 574.13 0.00 -- 60.1 100.0
06/14/2020 10:00 574.13 0.00 -- 57.0 100.0
06/14/2020 09:00 574.14 0.00 -- 54.7 100.0
06/14/2020 08:00 574.13 0.00 -- 52.6 100.0
06/14/2020 07:00 574.13 0.00 -- 50.6 100.0
06/14/2020 06:00 574.13 0.00 -- 50.1 100.0
06/14/2020 05:00 574.13 0.00 -- 52.2 100.0
06/14/2020 04:00 574.13 0.00 -- 50.3 100.0
06/14/2020 03:00 574.13 0.00 -- 51.5 100.0
06/14/2020 02:00 574.14 0.00 -- 53.3 100.0
06/14/2020 01:00 574.12 0.00 -- 52.9 100.0
06/14/2020 00:00 574.13 0.00 0.00 55.1 100.0
06/13/2020 23:00 574.14 0.00 -- 56.3 100.0
06/13/2020 22:00 574.13 0.00 -- 57.7 100.0
06/13/2020 21:00 574.14 0.00 -- 58.3 100.0
06/13/2020 20:00 574.13 0.00 -- 60.8 100.0
06/13/2020 19:00 574.14 0.00 -- 61.8 100.0
06/13/2020 18:00 574.12 0.00 -- 63.9 100.0
06/13/2020 17:00 574.12 0.00 -- 64.9 100.0
06/13/2020 16:00 574.12 0.00 -- 64.6 100.0
06/13/2020 15:00 574.15 0.00 -- 63.9 100.0
06/13/2020 14:00 574.15 0.00 -- 63.6 100.0
06/13/2020 13:00 574.15 0.00 -- 61.7 100.0
06/13/2020 12:00 574.15 0.00 -- 60.7 100.0
06/13/2020 11:00 574.15 0.00 -- 58.9 100.0
06/13/2020 10:00 574.14 0.00 -- 57.4 100.0
06/13/2020 09:00 574.15 0.00 -- 56.1 100.0
06/13/2020 08:00 574.14 0.00 -- 53.7 100.0
06/13/2020 07:00 574.14 0.00 -- 50.3 100.0
06/13/2020 06:00 574.14 0.00 -- 51.3 100.0
06/13/2020 05:00 574.14 0.00 -- 52.2 100.0
06/13/2020 04:00 574.13 0.00 -- 53.1 100.0
06/13/2020 03:00 574.14 0.00 -- 54.1 100.0
06/13/2020 02:00 574.14 0.00 -- 56.0 100.0
06/13/2020 01:00 574.14 0.00 -- 61.6 100.0
06/13/2020 00:00 574.15 0.00 0.00 64.9 100.0
06/12/2020 23:00 574.14 0.00 -- 65.1 100.0
06/12/2020 22:00 574.13 0.00 -- 64.9 100.0
06/12/2020 21:00 574.14 0.00 -- 71.6 100.0
06/12/2020 20:00 574.12 0.00 -- 74.3 100.0
06/12/2020 19:00 574.12 0.00 -- 76.2 100.0
06/12/2020 18:00 574.11 0.00 -- 78.7 100.0
06/12/2020 17:00 574.14 0.00 -- 79.4 100.0
06/12/2020 16:00 574.15 0.00 -- 77.0 100.0
06/12/2020 15:00 574.15 0.00 -- 78.1 100.0
06/12/2020 14:00 574.15 0.00 -- 75.5 100.0
06/12/2020 13:00 574.16 0.00 -- 74.1 100.0
06/12/2020 12:00 574.17 0.00 -- 72.6 92.0
06/12/2020 11:00 574.14 0.00 -- 70.4 83.0
06/12/2020 10:00 574.15 0.00 -- 66.8 80.0
06/12/2020 09:00 574.15 0.00 -- 63.4 74.0
06/12/2020 08:00 574.16 0.00 -- 59.9 66.0
06/12/2020 07:00 574.16 0.00 -- 58.4 66.0
06/12/2020 06:00 574.16 0.00 -- 59.7 66.0
06/12/2020 05:00 574.17 0.00 -- 63.3 56.0
06/12/2020 04:00 574.14 0.00 -- 65.5 56.0
06/12/2020 03:00 574.15 0.00 -- 65.0 51.0
06/12/2020 02:00 574.15 0.00 -- 67.8 48.0
06/12/2020 01:00 574.13 0.00 -- 67.5 48.0
06/12/2020 00:00 574.14 0.00 0.00 69.4 45.0
06/11/2020 23:00 574.15 0.00 -- 70.1 44.0
06/11/2020 22:00 574.15 0.00 -- 69.6 48.0
06/11/2020 21:00 574.15 0.00 -- 71.2 49.0
06/11/2020 20:00 574.13 0.00 -- 71.6 52.0
06/11/2020 19:00 574.16 0.00 -- 73.1 51.0
06/11/2020 18:00 574.16 0.00 -- 74.0 55.0
06/11/2020 17:00 574.14 0.00 -- 73.8 72.0
06/11/2020 16:00 574.15 0.00 -- 71.0 100.0
06/11/2020 15:00 574.11 0.00 -- 69.0 100.0
06/11/2020 14:00 574.13 0.00 -- 67.7 100.0
06/11/2020 13:00 574.15 0.00 -- 61.9 100.0
06/11/2020 12:00 574.13 0.00 -- 59.6 100.0
06/11/2020 11:00 574.14 0.00 -- 58.5 100.0
06/11/2020 10:00 574.12 0.00 -- 57.4 100.0
06/11/2020 09:00 574.13 0.00 -- 56.2 100.0
06/11/2020 08:00 574.14 0.00 -- 55.5 100.0
06/11/2020 07:00 574.13 0.00 -- 55.1 100.0
06/11/2020 06:00 574.16 0.00 -- 54.9 100.0
06/11/2020 05:00 574.12 0.00 -- 54.4 100.0
06/11/2020 04:00 574.15 0.00 -- 54.2 100.0
06/11/2020 03:00 574.11 0.00 -- 53.9 100.0
06/11/2020 02:00 574.13 0.00 -- 53.7 100.0
06/11/2020 01:00 574.16 0.00 -- 53.5 100.0
06/11/2020 00:00 574.13 0.00 0.00 53.9 100.0
06/10/2020 23:00 574.11 0.00 -- 54.7 100.0
06/10/2020 22:00 574.12 0.00 -- 55.9 100.0
06/10/2020 21:00 574.13 0.00 -- 57.2 100.0
06/10/2020 20:00 574.16 0.00 -- 59.1 100.0
06/10/2020 19:00 574.13 0.00 -- 61.4 100.0
06/10/2020 18:00 574.14 0.00 -- 64.4 100.0
06/10/2020 17:00 574.13 0.00 -- 67.3 100.0
06/10/2020 16:00 574.15 0.00 -- 68.6 100.0
06/10/2020 15:00 574.12 0.00 -- 70.4 100.0
06/10/2020 14:00 574.15 0.00 -- 69.0 100.0
06/10/2020 13:00 574.11 0.00 -- 67.2 100.0
06/10/2020 12:00 574.14 0.00 -- 66.7 100.0
06/10/2020 11:00 574.15 0.00 -- 66.8 100.0
06/10/2020 10:00 574.13 0.00 -- 63.7 100.0
06/10/2020 09:00 574.12 0.00 -- 60.3 100.0
06/10/2020 08:00 574.12 0.00 -- 58.7 100.0
06/10/2020 07:00 574.14 0.00 -- 57.3 100.0
06/10/2020 06:00 574.11 0.00 -- 58.2 100.0
06/10/2020 05:00 574.14 0.00 -- 59.2 100.0
06/10/2020 04:00 574.14 0.00 -- 59.2 100.0
06/10/2020 03:00 574.13 0.00 -- 59.0 100.0
06/10/2020 02:00 574.14 0.00 -- 59.9 100.0
06/10/2020 01:00 574.13 0.00 -- 60.8 100.0
06/10/2020 00:00 574.13 0.00 0.00 61.0 100.0
06/09/2020 23:00 574.13 0.00 -- 61.2 100.0
06/09/2020 22:00 574.12 0.00 -- 61.7 100.0
06/09/2020 21:00 574.12 0.00 -- 63.0 100.0
06/09/2020 20:00 574.13 0.00 -- 64.0 100.0
06/09/2020 19:00 574.13 0.00 -- 65.6 100.0
06/09/2020 18:00 574.13 0.00 -- 66.6 100.0
06/09/2020 17:00 574.13 0.00 -- 66.9 100.0
06/09/2020 16:00 574.14 0.00 -- 66.9 100.0
06/09/2020 15:00 574.14 0.00 -- 67.1 100.0
06/09/2020 14:00 574.14 0.00 -- 66.2 100.0
06/09/2020 13:00 574.14 0.00 -- 64.2 100.0
06/09/2020 12:00 574.14 0.00 -- 61.5 100.0
06/09/2020 11:00 574.12 0.00 -- 61.1 100.0
06/09/2020 10:00 574.12 0.00 -- 59.2 100.0
06/09/2020 09:00 574.15 0.00 -- 58.4 100.0
06/09/2020 08:00 574.14 0.00 -- 57.9 100.0
06/09/2020 07:00 574.13 0.00 -- 56.1 100.0
06/09/2020 06:00 574.13 0.00 -- 55.9 100.0
06/09/2020 05:00 574.14 0.00 -- 56.8 100.0
06/09/2020 04:00 574.12 0.00 -- 57.0 100.0
06/09/2020 03:00 574.14 0.00 -- 56.5 100.0
06/09/2020 02:00 574.13 0.00 -- 57.1 100.0
06/09/2020 01:00 574.13 0.00 -- 57.9 100.0
06/09/2020 00:00 574.13 0.00 0.00 59.5 100.0
06/08/2020 23:00 574.13 0.00 -- 58.8 100.0
06/08/2020 22:00 574.13 0.00 -- 59.4 100.0
06/08/2020 21:00 574.13 0.00 -- 63.6 100.0
06/08/2020 20:00 574.15 0.00 -- 70.2 100.0
06/08/2020 19:00 574.15 0.00 -- 71.6 100.0
06/08/2020 18:00 574.15 0.00 -- 73.2 100.0
06/08/2020 17:00 574.14 0.00 -- 71.8 100.0
06/08/2020 16:00 574.13 0.00 -- 71.4 100.0
06/08/2020 15:00 574.15 0.00 -- 69.5 100.0
06/08/2020 14:00 574.15 0.00 -- 68.2 100.0
06/08/2020 13:00 574.10 0.00 -- 67.5 100.0
06/08/2020 12:00 574.13 0.00 -- 66.0 100.0
06/08/2020 11:00 574.16 0.00 -- 63.4 100.0
06/08/2020 10:00 574.16 0.00 -- 60.3 100.0
06/08/2020 09:00 574.16 0.00 -- 57.5 100.0
06/08/2020 08:00 574.14 0.00 -- 54.3 100.0
06/08/2020 07:00 574.14 0.00 -- 51.0 100.0
06/08/2020 06:00 574.15 0.00 -- 51.5 100.0
06/08/2020 05:00 574.15 0.00 -- 53.0 100.0
06/08/2020 04:00 574.14 0.00 -- 53.1 100.0
06/08/2020 03:00 574.16 0.00 -- 50.7 100.0
06/08/2020 02:00 574.14 0.00 -- 52.6 100.0
06/08/2020 01:00 574.14 0.00 -- 54.7 100.0
06/08/2020 00:00 574.14 0.00 0.00 55.3 100.0
06/07/2020 23:00 574.15 0.00 -- 55.4 100.0
06/07/2020 22:00 574.15 0.00 -- 56.4 100.0
06/07/2020 21:00 574.16 0.00 -- 57.5 100.0
06/07/2020 20:00 574.16 0.00 -- 58.5 100.0
06/07/2020 19:00 574.17 0.00 -- 59.6 100.0
06/07/2020 18:00 574.17 0.00 -- 60.6 100.0
06/07/2020 17:00 574.18 0.00 -- 61.7 100.0
06/07/2020 16:00 574.18 0.00 -- 62.7 100.0
06/07/2020 15:00 574.16 0.00 -- 62.9 100.0
06/07/2020 14:00 574.16 0.00 -- 62.3 100.0
06/07/2020 13:00 574.15 0.00 -- 61.9 100.0
06/07/2020 12:00 574.17 0.00 -- 60.8 100.0
06/07/2020 11:00 574.15 0.00 -- 61.0 100.0
06/07/2020 10:00 574.15 0.00 -- 58.8 100.0
06/07/2020 09:00 574.15 0.00 -- 58.3 100.0
06/07/2020 08:00 574.17 0.00 -- 57.2 100.0
06/07/2020 07:00 574.15 0.00 -- 57.2 100.0
06/07/2020 06:00 574.15 0.00 -- 57.1 100.0
06/07/2020 05:00 574.16 0.00 -- 56.3 100.0
06/07/2020 04:00 574.16 0.00 -- 56.3 100.0
06/07/2020 03:00 574.13 0.00 -- 57.6 100.0
06/07/2020 02:00 574.14 0.00 -- 58.5 100.0
06/07/2020 01:00 574.16 0.00 -- 58.3 100.0
06/07/2020 00:00 574.14 0.00 0.00 60.0 100.0
06/06/2020 23:00 574.17 0.00 -- 60.4 100.0
06/06/2020 22:00 574.13 0.00 -- 65.3 100.0
06/06/2020 21:00 574.13 0.00 -- 67.2 100.0
06/06/2020 20:00 574.13 0.00 -- 67.8 100.0
06/06/2020 19:00 574.13 0.00 -- 67.3 100.0
06/06/2020 18:00 574.13 0.00 -- 66.7 100.0
06/06/2020 17:00 574.09 0.00 -- 65.8 100.0
06/06/2020 16:00 574.16 0.04 -- 63.7 100.0
06/06/2020 15:00 574.11 0.00 -- 73.6 100.0
06/06/2020 14:00 574.08 0.42 -- 66.6 100.0
06/06/2020 13:00 574.03 0.00 -- 79.3 100.0
06/06/2020 12:00 574.04 0.00 -- 78.1 100.0
06/06/2020 11:00 574.05 0.00 -- 75.6 100.0
06/06/2020 10:00 574.04 0.00 -- 72.5 100.0
06/06/2020 09:00 574.05 0.00 -- 69.5 100.0
06/06/2020 08:00 574.05 0.00 -- 68.7 100.0
06/06/2020 07:00 574.06 0.00 -- 66.6 100.0
06/06/2020 06:00 574.03 0.00 -- 66.9 100.0
06/06/2020 05:00 574.04 0.00 -- 67.7 100.0
06/06/2020 04:00 574.04 0.00 -- 68.0 100.0
06/06/2020 03:00 574.02 0.00 -- 68.0 100.0
06/06/2020 02:00 574.03 0.00 -- 70.0 100.0
06/06/2020 01:00 574.04 0.00 -- 72.0 100.0
06/06/2020 00:00 574.04 0.00 0.46 72.1 100.0
06/05/2020 23:00 574.03 0.00 -- 72.9 100.0
06/05/2020 22:00 574.04 0.00 -- 74.2 100.0
06/05/2020 21:00 574.05 0.00 -- 76.2 100.0
06/05/2020 20:00 574.03 0.00 -- 76.9 100.0
06/05/2020 19:00 574.04 0.00 -- 77.3 100.0
06/05/2020 18:00 574.07 0.00 -- 77.3 100.0
06/05/2020 17:00 574.03 0.00 -- 82.6 100.0
06/05/2020 16:00 574.03 0.00 -- 81.6 100.0
06/05/2020 15:00 574.04 0.00 -- 80.3 100.0
06/05/2020 14:00 574.03 0.00 -- 79.8 100.0
06/05/2020 13:00 574.04 0.00 -- 75.4 100.0
06/05/2020 12:00 574.05 0.00 -- 72.6 100.0
06/05/2020 11:00 574.06 0.00 -- 73.1 100.0
06/05/2020 10:00 574.04 0.00 -- 69.3 100.0
06/05/2020 09:00 574.03 0.00 -- 66.3 100.0
06/05/2020 08:00 574.03 0.00 -- 65.9 100.0
06/05/2020 07:00 574.05 0.01 -- 64.1 100.0
06/05/2020 06:00 574.05 0.00 -- 69.4 100.0
06/05/2020 05:00 574.04 0.00 -- 69.7 100.0
06/05/2020 04:00 574.04 0.00 -- 68.0 100.0
06/05/2020 03:00 574.03 0.00 -- 67.5 100.0
06/05/2020 02:00 574.04 0.00 -- 69.7 100.0
06/05/2020 01:00 574.04 0.00 -- 70.6 100.0
06/05/2020 00:00 574.04 0.00 0.01 73.4 100.0
06/04/2020 23:00 574.04 0.00 -- 69.3 100.0
06/04/2020 22:00 574.06 0.00 -- 70.6 100.0
06/04/2020 21:00 574.05 0.00 -- 73.9 100.0
06/04/2020 20:00 574.04 0.00 -- 78.9 100.0
06/04/2020 19:00 574.03 0.00 -- 81.1 100.0
06/04/2020 18:00 574.04 0.00 -- 81.7 100.0
06/04/2020 17:00 574.06 0.00 -- 80.7 100.0
06/04/2020 16:00 574.06 0.00 -- 79.7 100.0
06/04/2020 15:00 574.03 0.00 -- 78.0 100.0
06/04/2020 14:00 574.04 0.00 -- 74.3 100.0
06/04/2020 13:00 574.07 0.00 -- 73.0 100.0
06/04/2020 12:00 574.07 0.00 -- 71.0 100.0
06/04/2020 11:00 574.08 0.00 -- 68.4 100.0
06/04/2020 10:00 574.04 0.00 -- 65.8 100.0
06/04/2020 09:00 574.05 0.00 -- 61.6 100.0
06/04/2020 08:00 574.06 0.00 -- 56.7 100.0
06/04/2020 07:00 574.06 0.00 -- 53.6 100.0
06/04/2020 06:00 574.05 0.00 -- 53.5 100.0
06/04/2020 05:00 574.04 0.00 -- 54.1 100.0
06/04/2020 04:00 574.06 0.00 -- 54.5 100.0
06/04/2020 03:00 574.06 0.00 -- 54.7 100.0
06/04/2020 02:00 574.05 0.00 -- 54.6 100.0
06/04/2020 01:00 574.05 0.00 -- 55.3 100.0
06/04/2020 00:00 574.03 0.00 0.00 56.1 100.0
06/03/2020 23:00 574.05 0.00 -- 57.6 100.0
06/03/2020 22:00 574.05 0.00 -- 60.4 100.0
06/03/2020 21:00 574.10 0.00 -- 63.8 100.0
06/03/2020 20:00 574.08 0.00 -- 65.2 100.0
06/03/2020 19:00 574.10 0.00 -- 70.1 100.0
06/03/2020 18:00 574.06 0.00 -- 70.6 100.0
06/03/2020 17:00 574.06 0.00 -- 70.9 100.0
06/03/2020 16:00 574.05 0.00 -- 71.1 100.0
06/03/2020 15:00 574.06 0.00 -- 68.0 100.0
06/03/2020 14:00 574.07 0.00 -- 67.0 100.0
06/03/2020 13:00 574.04 0.00 -- 66.2 100.0
06/03/2020 12:00 574.04 0.00 -- 63.4 100.0
06/03/2020 11:00 574.05 0.00 -- 62.5 100.0
06/03/2020 10:00 574.06 0.00 -- 59.0 100.0
06/03/2020 09:00 574.06 0.00 -- 56.2 100.0
06/03/2020 08:00 574.06 0.00 -- 54.3 100.0
06/03/2020 07:00 574.06 0.00 -- 53.1 100.0
06/03/2020 06:00 574.06 0.00 -- 52.3 100.0
06/03/2020 05:00 574.04 0.00 -- 52.5 100.0
06/03/2020 04:00 574.04 0.00 -- 52.7 100.0
06/03/2020 03:00 574.06 0.00 -- 52.8 100.0
06/03/2020 02:00 574.05 0.01 -- 52.9 100.0
06/03/2020 01:00 574.06 0.00 -- 54.3 100.0
06/03/2020 00:00 574.07 0.00 0.01 54.9 100.0
06/02/2020 23:00 574.06 0.00 -- 55.6 100.0
06/02/2020 22:00 574.06 0.00 -- 56.0 100.0
06/02/2020 21:00 574.06 0.00 -- 57.7 100.0
06/02/2020 20:00 574.07 0.00 -- 58.2 100.0
06/02/2020 19:00 574.05 0.00 -- 60.0 100.0
06/02/2020 18:00 574.05 0.00 -- 63.5 100.0
06/02/2020 17:00 574.08 0.00 -- 63.3 100.0
06/02/2020 16:00 574.06 0.00 -- 61.5 100.0
06/02/2020 15:00 574.07 0.00 -- 61.3 100.0
06/02/2020 14:00 574.07 0.00 -- 58.8 100.0
06/02/2020 13:00 574.07 0.00 -- 58.9 100.0
06/02/2020 12:00 574.07 0.00 -- 56.7 100.0
06/02/2020 11:00 574.06 0.00 -- 54.8 100.0
06/02/2020 10:00 574.07 0.00 -- 52.1 100.0
06/02/2020 09:00 574.06 0.00 -- 48.9 100.0
06/02/2020 08:00 574.08 0.00 -- 46.3 100.0
06/02/2020 07:00 574.09 0.00 -- 42.4 100.0
06/02/2020 06:00 574.08 0.00 -- 42.9 100.0
06/02/2020 05:00 574.08 0.00 -- 44.9 100.0
06/02/2020 04:00 574.08 0.00 -- 43.8 100.0
06/02/2020 03:00 574.08 0.00 -- 43.7 100.0
06/02/2020 02:00 574.08 0.00 -- 44.6 100.0
06/02/2020 01:00 574.08 0.00 -- 46.4 100.0
06/02/2020 00:00 574.07 0.00 0.00 49.4 100.0
06/01/2020 23:00 574.08 0.00 -- 52.0 100.0
06/01/2020 22:00 574.08 0.00 -- 52.7 100.0
06/01/2020 21:00 574.08 0.00 -- 55.3 100.0
06/01/2020 20:00 574.07 0.00 -- 56.7 100.0
06/01/2020 19:00 574.08 0.00 -- 57.6 100.0
06/01/2020 18:00 574.05 0.00 -- 57.9 100.0
06/01/2020 17:00 574.08 0.00 -- 57.9 100.0
06/01/2020 16:00 574.10 0.00 -- 56.8 100.0
06/01/2020 15:00 574.10 0.00 -- 57.6 100.0
06/01/2020 14:00 574.09 0.00 -- 55.2 100.0
06/01/2020 13:00 574.13 0.00 -- 53.7 100.0
06/01/2020 12:00 574.11 0.00 -- 53.4 100.0
06/01/2020 11:00 574.08 0.00 -- 51.7 100.0
06/01/2020 10:00 574.10 0.00 -- 48.7 100.0
06/01/2020 09:00 574.09 0.00 -- 46.5 100.0
06/01/2020 08:00 574.08 0.00 -- 44.0 100.0
06/01/2020 07:00 574.09 0.00 -- 41.8 100.0
06/01/2020 06:00 574.10 0.00 -- 41.6 100.0
06/01/2020 05:00 574.09 0.00 -- 39.8 100.0
06/01/2020 04:00 574.10 0.00 -- 39.3 100.0
06/01/2020 03:00 574.09 0.00 -- 40.1 100.0
06/01/2020 02:00 574.09 0.00 -- 39.3 100.0
06/01/2020 01:00 574.10 0.00 -- 40.7 100.0
06/01/2020 00:00 574.09 0.00 0.00 42.2 100.0
05/31/2020 23:00 574.10 0.00 -- 44.8 100.0
05/31/2020 22:00 574.10 0.00 -- 48.1 100.0
05/31/2020 21:00 574.13 0.00 -- 50.6 100.0
05/31/2020 20:00 574.14 0.00 -- 53.0 100.0
05/31/2020 19:00 574.10 0.00 -- 54.1 100.0
05/31/2020 18:00 574.12 0.00 -- 55.9 100.0
05/31/2020 17:00 574.15 0.00 -- 56.5 100.0
05/31/2020 16:00 574.21 0.00 -- 56.4 100.0
05/31/2020 15:00 574.13 0.00 -- 56.5 100.0
05/31/2020 14:00 574.15 0.00 -- 55.9 100.0
05/31/2020 13:00 574.17 0.00 -- 55.5 100.0
05/31/2020 12:00 574.22 0.00 -- 55.0 100.0
05/31/2020 11:00 574.14 0.00 -- 54.2 100.0
05/31/2020 10:00 574.13 0.00 -- 53.1 100.0
05/31/2020 09:00 574.11 0.00 -- 52.9 100.0
05/31/2020 08:00 574.13 0.00 -- 52.2 100.0
05/31/2020 07:00 574.14 0.00 -- 53.4 100.0
05/31/2020 06:00 574.14 0.00 -- 56.4 100.0
05/31/2020 05:00 574.13 0.00 -- 58.7 100.0
05/31/2020 04:00 574.15 0.00 -- 60.4 100.0
05/31/2020 03:00 574.15 0.00 -- 61.7 100.0
05/31/2020 02:00 574.16 0.00 -- 61.4 100.0
05/31/2020 01:00 574.12 0.00 -- 64.1 100.0
05/31/2020 00:00 574.10 0.00 0.00 57.0 100.0
05/30/2020 23:00 574.12 0.00 -- 57.4 100.0
05/30/2020 22:00 574.13 0.00 -- 60.2 100.0
05/30/2020 21:00 574.14 0.00 -- 65.0 100.0
05/30/2020 20:00 574.14 0.00 -- 70.1 100.0
05/30/2020 19:00 574.13 0.00 -- 71.0 100.0
05/30/2020 18:00 574.11 0.00 -- 72.0 100.0
05/30/2020 17:00 574.15 0.00 -- 72.6 100.0
05/30/2020 16:00 574.19 0.00 -- 72.5 100.0
05/30/2020 15:00 574.10 0.00 -- 71.9 100.0
05/30/2020 14:00 574.15 0.00 -- 70.7 100.0
05/30/2020 13:00 574.16 0.00 -- 70.5 100.0
05/30/2020 12:00 574.13 0.00 -- 70.1 100.0
05/30/2020 11:00 574.14 0.00 -- 69.8 100.0
05/30/2020 10:00 574.14 0.00 -- 70.5 100.0
05/30/2020 09:00 574.15 0.00 -- 69.7 100.0
05/30/2020 08:00 574.15 0.00 -- 69.5 100.0
05/30/2020 07:00 574.16 0.00 -- 69.0 100.0
05/30/2020 06:00 574.14 0.00 -- 68.9 100.0
05/30/2020 05:00 574.12 0.00 -- 69.6 100.0
05/30/2020 04:00 574.13 0.00 -- 70.4 100.0
05/30/2020 03:00 574.17 0.00 -- 71.2 100.0
05/30/2020 02:00 574.12 0.00 -- 71.9 100.0
05/30/2020 01:00 574.16 0.00 -- 72.5 100.0
05/30/2020 00:00 574.13 0.00 0.00 73.3 100.0
05/29/2020 23:00 574.16 0.00 -- 74.3 100.0
05/29/2020 22:00 574.17 0.00 -- 75.3 100.0
05/29/2020 21:00 574.15 0.00 -- 77.4 100.0
05/29/2020 20:00 574.13 0.00 -- 79.2 100.0
05/29/2020 19:00 574.13 0.00 -- 81.5 100.0
05/29/2020 18:00 574.16 0.00 -- 83.8 100.0
05/29/2020 17:00 574.15 0.00 -- 85.3 100.0
05/29/2020 16:00 574.16 0.00 -- 84.8 100.0
05/29/2020 15:00 574.17 0.00 -- 85.1 100.0
05/29/2020 14:00 574.13 0.00 -- 81.2 100.0
05/29/2020 13:00 574.14 0.00 -- 80.1 100.0
05/29/2020 12:00 574.11 0.00 -- 77.1 100.0
05/29/2020 11:00 574.12 0.00 -- 77.7 100.0
05/29/2020 10:00 574.14 0.00 -- 75.0 100.0
05/29/2020 09:00 574.16 0.00 -- 72.7 100.0
05/29/2020 08:00 574.16 0.00 -- 70.3 100.0
05/29/2020 07:00 574.13 0.00 -- 69.8 100.0
05/29/2020 06:00 574.14 0.00 -- 70.0 100.0
05/29/2020 05:00 574.13 0.00 -- 70.4 100.0
05/29/2020 04:00 574.16 0.00 -- 70.5 100.0
05/29/2020 03:00 574.15 0.00 -- 70.6 100.0
05/29/2020 02:00 574.15 0.00 -- 70.8 100.0
05/29/2020 01:00 574.14 0.00 -- 70.6 100.0
05/29/2020 00:00 574.12 0.00 0.00 70.7 100.0
05/28/2020 23:00 574.15 0.00 -- 71.2 100.0
05/28/2020 22:00 574.13 0.00 -- 72.5 100.0
05/28/2020 21:00 574.16 0.00 -- 74.5 100.0
05/28/2020 20:00 574.14 0.00 -- 77.3 100.0
05/28/2020 19:00 574.16 0.00 -- 78.5 100.0
05/28/2020 18:00 574.15 0.00 -- 80.9 100.0
05/28/2020 17:00 574.11 0.00 -- 82.0 100.0
05/28/2020 16:00 574.11 0.00 -- 83.0 100.0
05/28/2020 15:00 574.16 0.00 -- 83.2 100.0
05/28/2020 14:00 574.14 0.00 -- 80.8 100.0
05/28/2020 13:00 574.15 0.00 -- 78.8 100.0
05/28/2020 12:00 574.15 0.00 -- 78.0 100.0
05/28/2020 11:00 574.14 0.00 -- 74.8 100.0
05/28/2020 10:00 574.15 0.00 -- 71.5 100.0
05/28/2020 09:00 574.15 0.00 -- 69.6 100.0
05/28/2020 08:00 574.15 0.00 -- 66.0 100.0
05/28/2020 07:00 574.17 0.00 -- 65.2 100.0
05/28/2020 06:00 574.15 0.00 -- 65.6 100.0
05/28/2020 05:00 574.16 0.00 -- 66.3 100.0
05/28/2020 04:00 574.15 0.00 -- 67.7 100.0
05/28/2020 03:00 574.14 0.00 -- 68.5 100.0
05/28/2020 02:00 574.16 0.00 -- 69.8 100.0
05/28/2020 01:00 574.15 0.00 -- 70.8 100.0
05/28/2020 00:00 574.14 0.00 0.00 71.5 100.0
05/27/2020 23:00 574.14 0.00 -- 72.5 100.0
05/27/2020 22:00 574.14 0.00 -- 74.1 100.0
05/27/2020 21:00 574.14 0.00 -- 76.2 100.0
05/27/2020 20:00 574.14 0.00 -- 80.0 100.0
05/27/2020 19:00 574.14 0.00 -- 84.0 100.0
05/27/2020 18:00 574.16 0.00 -- 88.0 100.0
05/27/2020 17:00 574.16 0.00 -- 89.1 100.0
05/27/2020 16:00 574.16 0.00 -- 90.2 100.0
05/27/2020 15:00 574.15 0.00 -- 89.1 100.0
05/27/2020 14:00 574.15 0.00 -- 87.7 100.0
05/27/2020 13:00 574.15 0.00 -- 86.0 100.0
05/27/2020 12:00 574.15 0.00 -- 83.8 57.0
05/27/2020 11:00 574.15 0.00 -- 78.8 75.0
05/27/2020 10:00 574.15 0.00 -- 71.0 100.0
05/27/2020 09:00 574.16 0.00 -- 65.4 100.0
05/27/2020 08:00 574.16 0.00 -- 59.8 100.0
05/27/2020 07:00 574.16 0.00 -- 58.3 100.0
05/27/2020 06:00 574.15 0.00 -- 58.2 100.0
05/27/2020 05:00 574.15 0.00 -- 58.6 100.0
05/27/2020 04:00 574.16 0.00 -- 59.0 100.0
05/27/2020 03:00 574.15 0.00 -- 59.5 100.0
05/27/2020 02:00 574.15 0.00 -- 60.3 100.0
05/27/2020 01:00 574.16 0.00 -- 61.3 100.0
05/27/2020 00:00 574.15 0.00 0.00 62.6 100.0
05/26/2020 23:00 574.15 0.00 -- 64.7 100.0
05/26/2020 22:00 574.15 0.00 -- 67.3 100.0
05/26/2020 21:00 574.14 0.00 -- 70.5 100.0
05/26/2020 20:00 574.16 0.00 -- 74.2 100.0
05/26/2020 19:00 574.16 0.00 -- 77.7 100.0
05/26/2020 18:00 574.12 0.00 -- 81.6 100.0
05/26/2020 17:00 574.14 0.00 -- 83.2 100.0
05/26/2020 16:00 574.15 0.00 -- 82.6 73.0
05/26/2020 15:00 574.14 0.00 -- 81.6 37.0
05/26/2020 14:00 574.15 0.00 -- 79.3 31.0
05/26/2020 13:00 574.17 0.00 -- 77.1 29.0
05/26/2020 12:00 574.16 0.00 -- 74.3 27.0
05/26/2020 11:00 574.16 0.00 -- 69.7 39.0
05/26/2020 10:00 574.15 0.00 -- 64.1 98.0
05/26/2020 09:00 574.16 0.00 -- 59.7 100.0
05/26/2020 08:00 574.15 0.00 -- 56.0 100.0
05/26/2020 07:00 574.17 0.00 -- 54.2 100.0
05/26/2020 06:00 574.14 0.00 -- 53.9 100.0
05/26/2020 05:00 574.15 0.00 -- 54.8 100.0
05/26/2020 04:00 574.15 0.00 -- 54.9 100.0
05/26/2020 03:00 574.16 0.00 -- 55.0 100.0
05/26/2020 02:00 574.17 0.00 -- 54.8 100.0
05/26/2020 01:00 574.16 0.00 -- 55.0 100.0
05/26/2020 00:00 574.15 0.00 0.00 55.6 100.0
05/25/2020 23:00 574.14 0.00 -- 56.7 100.0
05/25/2020 22:00 574.15 0.00 -- 57.3 100.0
05/25/2020 21:00 574.16 0.00 -- 58.8 100.0
05/25/2020 20:00 574.15 0.00 -- 59.9 100.0
05/25/2020 19:00 574.15 0.00 -- 60.3 100.0
05/25/2020 18:00 574.15 0.00 -- 60.3 100.0
05/25/2020 17:00 574.16 0.00 -- 61.4 100.0
05/25/2020 16:00 574.16 0.00 -- 61.9 100.0
05/25/2020 15:00 574.14 0.00 -- 60.8 100.0
05/25/2020 14:00 574.14 0.00 -- 60.6 100.0
05/25/2020 13:00 574.16 0.00 -- 60.3 100.0
05/25/2020 12:00 574.16 0.00 -- 56.5 100.0
05/25/2020 11:00 574.16 0.00 -- 53.5 100.0
05/25/2020 10:00 574.16 0.00 -- 50.8 100.0
05/25/2020 09:00 574.16 0.00 -- 48.0 100.0
05/25/2020 08:00 574.16 0.00 -- 47.0 100.0
05/25/2020 07:00 574.15 0.00 -- 45.5 100.0
05/25/2020 06:00 574.15 0.00 -- 44.2 100.0
05/25/2020 05:00 574.16 0.00 -- 43.4 100.0
05/25/2020 04:00 574.16 0.00 -- 42.2 100.0
05/25/2020 03:00 574.17 0.00 -- 41.1 100.0
05/25/2020 02:00 574.16 0.00 -- 42.2 100.0
05/25/2020 01:00 574.15 0.00 -- 41.8 100.0
05/25/2020 00:00 574.15 0.00 0.00 43.4 100.0
05/24/2020 23:00 574.15 0.00 -- 46.0 100.0
05/24/2020 22:00 574.16 0.00 -- 48.6 100.0
05/24/2020 21:00 574.16 0.00 -- 51.9 100.0
05/24/2020 20:00 574.18 0.00 -- 54.6 100.0
05/24/2020 19:00 574.17 0.00 -- 56.6 100.0
05/24/2020 18:00 574.18 0.00 -- 60.9 100.0
05/24/2020 17:00 574.19 0.00 -- 63.6 100.0
05/24/2020 16:00 574.15 0.00 -- 64.4 100.0
05/24/2020 15:00 574.18 0.00 -- 64.5 100.0
05/24/2020 14:00 574.16 0.00 -- 63.3 100.0
05/24/2020 13:00 574.15 0.00 -- 61.7 100.0
05/24/2020 12:00 574.17 0.00 -- 58.9 100.0
05/24/2020 11:00 574.17 0.00 -- 56.7 100.0
05/24/2020 10:00 574.18 0.00 -- 51.8 100.0
05/24/2020 09:00 574.17 0.00 -- 47.5 100.0
05/24/2020 08:00 574.18 0.00 -- 42.6 100.0
05/24/2020 07:00 574.18 0.00 -- 38.8 100.0
05/24/2020 06:00 574.16 0.00 -- 38.3 100.0
05/24/2020 05:00 574.15 0.00 -- 38.8 100.0
05/24/2020 04:00 574.17 0.00 -- 39.6 100.0
05/24/2020 03:00 574.17 0.00 -- 40.5 100.0
05/24/2020 02:00 574.17 0.00 -- 40.8 100.0
05/24/2020 01:00 574.18 0.00 -- 42.2 100.0
05/24/2020 00:00 574.18 0.00 0.00 43.0 100.0
05/23/2020 23:00 574.17 0.00 -- 44.9 100.0
05/23/2020 22:00 574.20 0.00 -- 48.8 100.0
05/23/2020 21:00 574.17 0.00 -- 51.8 100.0
05/23/2020 20:00 574.18 0.00 -- 54.6 100.0
05/23/2020 19:00 574.17 0.00 -- 57.7 100.0
05/23/2020 18:00 574.18 0.00 -- 60.6 100.0
05/23/2020 17:00 574.18 0.00 -- 61.9 100.0
05/23/2020 16:00 574.19 0.00 -- 62.2 100.0
05/23/2020 15:00 574.17 0.00 -- 62.4 100.0
05/23/2020 14:00 574.15 0.00 -- 66.5 100.0
05/23/2020 13:00 574.19 0.00 -- 71.8 100.0
05/23/2020 12:00 574.18 0.00 -- 70.2 100.0
05/23/2020 11:00 574.17 0.00 -- 67.5 100.0
05/23/2020 10:00 574.16 0.00 -- 65.5 100.0
05/23/2020 09:00 574.16 0.00 -- 62.6 100.0
05/23/2020 08:00 574.19 0.00 -- 59.4 100.0
05/23/2020 07:00 574.19 0.00 -- 56.7 100.0
05/23/2020 06:00 574.18 0.00 -- 56.5 100.0
05/23/2020 05:00 574.18 0.00 -- 58.1 100.0
05/23/2020 04:00 574.18 0.00 -- 56.0 100.0
05/23/2020 03:00 574.17 0.00 -- 59.3 100.0
05/23/2020 02:00 574.18 0.00 -- 57.0 100.0
05/23/2020 01:00 574.18 0.00 -- 57.9 100.0
05/23/2020 00:00 574.18 0.00 0.00 60.7 100.0
05/22/2020 23:00 574.17 0.00 -- 64.4 100.0
05/22/2020 22:00 574.18 0.00 -- 67.4 100.0
05/22/2020 21:00 574.18 0.00 -- 71.9 100.0
05/22/2020 20:00 574.19 0.00 -- 77.4 100.0
05/22/2020 19:00 574.18 0.00 -- 82.3 100.0
05/22/2020 18:00 574.20 0.00 -- 82.5 100.0
05/22/2020 17:00 574.22 0.00 -- 82.1 100.0
05/22/2020 16:00 574.18 0.00 -- 81.7 100.0
05/22/2020 15:00 574.18 0.00 -- 79.8 100.0
05/22/2020 14:00 574.18 0.00 -- 76.4 100.0
05/22/2020 13:00 574.18 0.00 -- 75.5 100.0
05/22/2020 12:00 574.18 0.00 -- 72.5 100.0
05/22/2020 11:00 574.21 0.00 -- 67.8 100.0
05/22/2020 10:00 574.20 0.00 -- 65.9 100.0
05/22/2020 09:00 574.19 0.00 -- 63.6 100.0
05/22/2020 08:00 574.17 0.00 -- 59.0 100.0
05/22/2020 07:00 574.18 0.00 -- 56.1 100.0
05/22/2020 06:00 574.19 0.00 -- 57.0 100.0
05/22/2020 05:00 574.17 0.00 -- 58.9 100.0
05/22/2020 04:00 574.20 0.00 -- 62.7 100.0
05/22/2020 03:00 574.20 0.00 -- 56.4 100.0
05/22/2020 02:00 574.19 0.00 -- 56.6 100.0
05/22/2020 01:00 574.18 0.00 -- 58.7 100.0
05/22/2020 00:00 574.18 0.00 0.00 64.7 100.0
05/21/2020 23:00 574.18 0.00 -- 60.8 100.0
05/21/2020 22:00 574.19 0.00 -- 63.3 100.0
05/21/2020 21:00 574.17 0.00 -- 66.4 100.0
05/21/2020 20:00 574.18 0.00 -- 71.8 100.0
05/21/2020 19:00 574.17 0.00 -- 77.3 100.0
05/21/2020 18:00 574.19 0.00 -- 79.5 100.0
05/21/2020 17:00 574.20 0.00 -- 79.0 100.0
05/21/2020 16:00 574.17 0.00 -- 76.3 100.0
05/21/2020 15:00 574.20 0.00 -- 75.4 100.0
05/21/2020 14:00 574.19 0.00 -- 72.6 100.0
05/21/2020 13:00 574.20 0.00 -- 70.8 100.0
05/21/2020 12:00 574.19 0.00 -- 68.3 100.0
05/21/2020 11:00 574.20 0.00 -- 65.5 100.0
05/21/2020 10:00 574.19 0.00 -- 61.0 100.0
05/21/2020 09:00 574.19 0.00 -- 54.6 100.0
05/21/2020 08:00 574.18 0.00 -- 45.7 100.0
05/21/2020 07:00 574.20 0.00 -- 41.5 100.0
05/21/2020 06:00 574.19 0.00 -- 41.7 100.0
05/21/2020 05:00 574.19 0.00 -- 43.4 100.0
05/21/2020 04:00 574.20 0.00 -- 46.7 100.0
05/21/2020 03:00 574.18 0.00 -- 49.0 100.0
05/21/2020 02:00 574.19 0.00 -- 48.6 100.0
05/21/2020 01:00 574.19 0.00 -- 50.7 100.0
05/21/2020 00:00 574.18 0.00 0.00 51.5 100.0
05/20/2020 23:00 574.19 0.00 -- 53.5 100.0
05/20/2020 22:00 574.20 0.00 -- 54.9 100.0
05/20/2020 21:00 574.20 0.00 -- 58.2 100.0
05/20/2020 20:00 574.18 0.00 -- 61.7 100.0
05/20/2020 19:00 574.19 0.00 -- 64.3 100.0
05/20/2020 18:00 574.19 0.00 -- 67.8 100.0
05/20/2020 17:00 574.18 0.00 -- 70.0 100.0
05/20/2020 16:00 574.18 0.00 -- 69.8 100.0
05/20/2020 15:00 574.20 0.00 -- 68.4 100.0
05/20/2020 14:00 574.20 0.00 -- 65.4 100.0
05/20/2020 13:00 574.21 0.00 -- 63.9 100.0
05/20/2020 12:00 574.19 0.00 -- 61.6 100.0
05/20/2020 11:00 574.19 0.00 -- 58.4 100.0
05/20/2020 10:00 574.20 0.00 -- 54.0 100.0
05/20/2020 09:00 574.20 0.00 -- 48.7 100.0
05/20/2020 08:00 574.19 0.00 -- 42.5 100.0
05/20/2020 07:00 574.20 0.00 -- 38.4 100.0
05/20/2020 06:00 574.20 0.00 -- 38.6 100.0
05/20/2020 05:00 574.20 0.00 -- 39.7 100.0
05/20/2020 04:00 574.21 0.00 -- 41.4 100.0
05/20/2020 03:00 574.20 0.00 -- 43.7 100.0
05/20/2020 02:00 574.20 0.00 -- 45.5 100.0
05/20/2020 01:00 574.19 0.00 -- 46.4 100.0
05/20/2020 00:00 574.20 0.00 0.00 48.9 100.0
05/19/2020 23:00 574.21 0.00 -- 50.3 100.0
05/19/2020 22:00 574.21 0.00 -- 51.7 100.0
05/19/2020 21:00 574.20 0.00 -- 54.9 100.0
05/19/2020 20:00 574.22 0.00 -- 58.1 100.0
05/19/2020 19:00 574.21 0.00 -- 59.8 100.0
05/19/2020 18:00 574.22 0.00 -- 61.1 100.0
05/19/2020 17:00 574.22 0.00 -- 63.5 100.0
05/19/2020 16:00 574.22 0.00 -- 62.9 100.0
05/19/2020 15:00 574.22 0.00 -- 62.4 100.0
05/19/2020 14:00 574.21 0.00 -- 61.9 100.0
05/19/2020 13:00 574.20 0.00 -- 60.4 100.0
05/19/2020 12:00 574.26 0.00 -- 59.3 100.0
05/19/2020 11:00 574.24 0.00 -- 55.9 100.0
05/19/2020 10:00 574.22 0.00 -- 52.8 100.0
05/19/2020 09:00 574.26 0.00 -- 50.1 100.0
05/19/2020 08:00 574.27 0.00 -- 46.9 100.0
05/19/2020 07:00 574.30 0.00 -- 41.4 100.0
05/19/2020 06:00 574.24 0.00 -- 40.7 100.0
05/19/2020 05:00 574.24 0.00 -- 40.8 100.0
05/19/2020 04:00 574.25 0.00 -- 41.4 100.0
05/19/2020 03:00 574.24 0.00 -- 41.8 100.0
05/19/2020 02:00 574.23 0.00 -- 43.6 100.0
05/19/2020 01:00 574.20 0.00 -- 43.9 100.0
05/19/2020 00:00 574.24 0.00 0.00 44.8 100.0
05/18/2020 23:00 574.23 0.00 -- 47.8 100.0
05/18/2020 22:00 574.24 0.00 -- 50.9 100.0
05/18/2020 21:00 574.24 0.00 -- 56.1 100.0
05/18/2020 20:00 574.24 0.00 -- 61.3 100.0
05/18/2020 19:00 574.24 0.00 -- 66.5 100.0
05/18/2020 18:00 574.25 0.00 -- 67.6 100.0
05/18/2020 17:00 574.25 0.00 -- 69.1 100.0
05/18/2020 16:00 574.25 0.00 -- 67.9 100.0
05/18/2020 15:00 574.25 0.00 -- 67.3 100.0
05/18/2020 14:00 574.25 0.00 -- 63.6 100.0
05/18/2020 13:00 574.25 0.00 -- 63.1 100.0
05/18/2020 12:00 574.25 0.00 -- 62.0 100.0
05/18/2020 11:00 574.25 0.00 -- 58.3 100.0
05/18/2020 10:00 574.27 0.00 -- 57.2 100.0
05/18/2020 09:00 574.26 0.00 -- 55.3 100.0
05/18/2020 08:00 574.25 0.00 -- 52.7 100.0
05/18/2020 07:00 574.26 0.00 -- 51.3 100.0
05/18/2020 06:00 574.26 0.00 -- 52.2 100.0
05/18/2020 05:00 574.26 0.00 -- 52.9 100.0
05/18/2020 04:00 574.26 0.00 -- 53.6 100.0
05/18/2020 03:00 574.26 0.00 -- 54.1 100.0
05/18/2020 02:00 574.26 0.00 -- 54.5 100.0
05/18/2020 01:00 574.27 0.00 -- 55.0 100.0
05/18/2020 00:00 574.26 0.00 0.00 55.7 100.0
05/17/2020 23:00 574.25 0.00 -- 56.4 100.0
05/17/2020 22:00 574.26 0.00 -- 58.4 100.0
05/17/2020 21:00 574.26 0.00 -- 61.2 100.0
05/17/2020 20:00 574.26 0.00 -- 65.0 100.0
05/17/2020 19:00 574.27 0.00 -- 65.7 100.0
05/17/2020 18:00 574.28 0.00 -- 66.7 100.0
05/17/2020 17:00 574.27 0.00 -- 66.7 100.0
05/17/2020 16:00 574.27 0.00 -- 67.0 100.0
05/17/2020 15:00 574.27 0.00 -- 65.9 100.0
05/17/2020 14:00 574.28 0.00 -- 64.3 100.0
05/17/2020 13:00 574.27 0.00 -- 62.3 100.0
05/17/2020 12:00 574.27 0.00 -- 60.1 100.0
05/17/2020 11:00 574.29 0.00 -- 58.2 100.0
05/17/2020 10:00 574.28 0.00 -- 56.5 100.0
05/17/2020 09:00 574.28 0.00 -- 54.3 100.0
05/17/2020 08:00 574.28 0.00 -- 49.4 100.0
05/17/2020 07:00 574.29 0.00 -- 47.0 100.0
05/17/2020 06:00 574.28 0.00 -- 46.0 100.0
05/17/2020 05:00 574.27 0.00 -- 46.6 100.0
05/17/2020 04:00 574.28 0.00 -- 48.0 100.0
05/17/2020 03:00 574.27 0.00 -- 49.4 100.0
05/17/2020 02:00 574.29 0.00 -- 49.4 100.0
05/17/2020 01:00 574.30 0.00 -- 50.4 100.0
05/17/2020 00:00 574.30 0.00 0.00 51.2 100.0
05/16/2020 23:00 574.28 0.00 -- 52.9 100.0
05/16/2020 22:00 574.29 0.00 -- 53.9 100.0
05/16/2020 21:00 574.28 0.00 -- 56.0 100.0
05/16/2020 20:00 574.28 0.00 -- 60.3 100.0
05/16/2020 19:00 574.29 0.00 -- 62.3 100.0
05/16/2020 18:00 574.29 0.00 -- 64.6 100.0
05/16/2020 17:00 574.29 0.00 -- 63.4 100.0
05/16/2020 16:00 574.29 0.00 -- 63.7 100.0
05/16/2020 15:00 574.30 0.00 -- 61.8 100.0
05/16/2020 14:00 574.32 0.00 -- 60.4 100.0
05/16/2020 13:00 574.27 0.00 -- 59.7 100.0
05/16/2020 12:00 574.27 0.00 -- 58.8 100.0
05/16/2020 11:00 574.25 0.00 -- 58.0 100.0
05/16/2020 10:00 574.30 0.00 -- 55.5 100.0
05/16/2020 09:00 574.29 0.00 -- 54.8 100.0
05/16/2020 08:00 574.31 0.00 -- 53.0 100.0
05/16/2020 07:00 574.29 0.00 -- 51.2 100.0
05/16/2020 06:00 574.30 0.00 -- 50.5 100.0
05/16/2020 05:00 574.30 0.00 -- 50.1 100.0
05/16/2020 04:00 574.28 0.00 -- 50.1 100.0
05/16/2020 03:00 574.24 0.07 -- 49.5 100.0
05/16/2020 02:00 574.23 0.03 -- 49.3 100.0
05/16/2020 01:00 574.30 0.00 -- 50.1 100.0
05/16/2020 00:00 574.26 0.01 0.10 51.9 100.0
05/15/2020 23:00 574.24 0.06 -- 51.8 100.0
05/15/2020 22:00 574.13 0.36 -- 52.6 100.0
05/15/2020 21:00 574.22 0.00 -- 54.2 100.0
05/15/2020 20:00 574.22 0.00 -- 58.4 100.0
05/15/2020 19:00 574.25 0.00 -- 62.6 100.0
05/15/2020 18:00 574.24 0.00 -- 66.2 100.0
05/15/2020 17:00 574.24 0.00 -- 66.8 100.0
05/15/2020 16:00 574.25 0.00 -- 68.2 100.0
05/15/2020 15:00 574.24 0.00 -- 67.2 100.0
05/15/2020 14:00 574.23 0.00 -- 64.5 100.0
05/15/2020 13:00 574.26 0.00 -- 62.1 100.0
05/15/2020 12:00 574.27 0.00 -- 58.3 100.0
05/15/2020 11:00 574.25 0.00 -- 56.2 100.0
05/15/2020 10:00 574.24 0.00 -- 54.5 100.0
05/15/2020 09:00 574.25 0.00 -- 52.5 100.0
05/15/2020 08:00 574.26 0.00 -- 50.4 100.0
05/15/2020 07:00 574.26 0.00 -- 49.7 100.0
05/15/2020 06:00 574.26 0.00 -- 49.2 100.0
05/15/2020 05:00 574.25 0.00 -- 49.5 100.0
05/15/2020 04:00 574.23 0.00 -- 50.7 100.0
05/15/2020 03:00 574.26 0.00 -- 51.3 100.0
05/15/2020 02:00 574.25 0.00 -- 51.1 100.0
05/15/2020 01:00 574.27 0.00 -- 50.9 100.0
05/15/2020 00:00 574.27 0.00 0.43 51.5 100.0
05/14/2020 23:00 574.26 0.00 -- 51.8 100.0
05/14/2020 22:00 574.27 0.00 -- 53.3 100.0
05/14/2020 21:00 574.26 0.00 -- 57.7 100.0
05/14/2020 20:00 574.27 0.00 -- 63.0 100.0
05/14/2020 19:00 574.28 0.00 -- 63.7 100.0
05/14/2020 18:00 574.28 0.00 -- 65.2 100.0
05/14/2020 17:00 574.25 0.00 -- 64.4 100.0
05/14/2020 16:00 574.30 0.00 -- 62.5 100.0
05/14/2020 15:00 574.29 0.00 -- 60.4 100.0
05/14/2020 14:00 574.24 0.00 -- 58.5 100.0
05/14/2020 13:00 574.26 0.00 -- 57.2 100.0
05/14/2020 12:00 574.28 0.00 -- 55.1 100.0
05/14/2020 11:00 574.27 0.00 -- 52.5 100.0
05/14/2020 10:00 574.29 0.00 -- 49.6 100.0
05/14/2020 09:00 574.29 0.00 -- 46.5 100.0
05/14/2020 08:00 574.28 0.00 -- 45.3 100.0
05/14/2020 07:00 574.28 0.00 -- 40.5 100.0
05/14/2020 06:00 574.30 0.00 -- 38.4 100.0
05/14/2020 05:00 574.29 0.00 -- 39.4 100.0
05/14/2020 04:00 574.29 0.00 -- 41.1 100.0
05/14/2020 03:00 574.28 0.00 -- 40.4 100.0
05/14/2020 02:00 574.30 0.00 -- 42.0 100.0
05/14/2020 01:00 574.29 0.00 -- 40.5 100.0
05/14/2020 00:00 574.29 0.00 0.00 44.0 100.0
05/13/2020 23:00 574.27 0.00 -- 46.7 100.0
05/13/2020 22:00 574.29 0.00 -- 48.7 100.0
05/13/2020 21:00 574.28 0.00 -- 50.9 100.0
05/13/2020 20:00 574.28 0.00 -- 52.0 100.0
05/13/2020 19:00 574.25 0.00 -- 52.5 100.0
05/13/2020 18:00 574.32 0.00 -- 52.7 100.0
05/13/2020 17:00 574.26 0.00 -- 52.1 100.0
05/13/2020 16:00 574.30 0.00 -- 51.6 100.0
05/13/2020 15:00 574.43 0.00 -- 50.4 100.0
05/13/2020 14:00 574.35 0.00 -- 49.5 100.0
05/13/2020 13:00 574.30 0.00 -- 47.6 100.0
05/13/2020 12:00 574.37 0.00 -- 45.7 100.0
05/13/2020 11:00 574.32 0.00 -- 44.3 100.0
05/13/2020 10:00 574.31 0.00 -- 41.6 100.0
05/13/2020 09:00 574.32 0.00 -- 39.1 100.0
05/13/2020 08:00 574.32 0.00 -- 37.3 100.0
05/13/2020 07:00 574.31 0.00 -- 32.6 100.0
05/13/2020 06:00 574.32 0.00 -- 36.2 100.0
05/13/2020 05:00 574.33 0.00 -- 34.6 100.0
05/13/2020 04:00 574.34 0.00 -- 37.2 100.0
05/13/2020 03:00 574.31 0.00 -- 37.9 100.0
05/13/2020 02:00 574.33 0.00 -- 39.0 100.0
05/13/2020 01:00 574.34 0.00 -- 39.7 100.0
05/13/2020 00:00 574.32 0.00 0.00 40.7 100.0
05/12/2020 23:00 574.33 0.00 -- 39.3 100.0
05/12/2020 22:00 574.33 0.00 -- 42.6 100.0
05/12/2020 21:00 574.36 0.00 -- 44.4 100.0
05/12/2020 20:00 574.37 0.00 -- 45.5 100.0
05/12/2020 19:00 574.33 0.00 -- 46.1 100.0
05/12/2020 18:00 574.30 0.00 -- 46.9 100.0
05/12/2020 17:00 -- -- -- 47.0 100.0
05/12/2020 16:00 -- -- -- 46.5 100.0
05/12/2020 15:00 -- -- -- 45.7 100.0
05/12/2020 14:00 -- -- -- 44.6 100.0
05/12/2020 13:00 -- -- -- 45.1 100.0
05/12/2020 12:00 -- -- -- 45.5 100.0
05/12/2020 11:00 -- -- -- 45.4 100.0
05/12/2020 10:00 -- -- -- 45.2 100.0
05/12/2020 09:00 -- -- -- 42.2 100.0
05/12/2020 08:00 -- -- -- 40.9 100.0
05/12/2020 07:00 -- -- -- 39.7 100.0
05/12/2020 06:00 -- -- -- 39.6 100.0
05/12/2020 05:00 -- -- -- 39.7 100.0
05/12/2020 04:00 -- -- -- 39.6 100.0
05/12/2020 03:00 -- -- -- 40.0 100.0
05/12/2020 02:00 -- -- -- 39.9 100.0
05/12/2020 01:00 -- -- -- 40.8 100.0
05/12/2020 00:00 -- -- 0.00 42.8 100.0